GFSMA_prec_precacc_072.txt.gz
Total_Precipitation_Accumulation
0.00 0.00 0.00 0.00 0.00 0.00 0.00 0.00 0.00 0.00 0.00 0.00 0.00 0.00 0.00 0.00 0.00 0.00 0.00 0.00 0.00 0.00 0.00 0.00 0.01 0.01 0.04 0.07 0.11 0.13 0.14 0.12 0.10 0.09 0.09 0.09 0.09 0.11 0.12 0.14 0.15 0.16 0.15
0.00 0.00 0.00 0.00 0.00 0.00 0.00 0.00 0.00 0.00 0.00 0.00 0.00 0.00 0.00 0.00 0.00 0.00 0.00 0.00 0.00 0.00 0.00 0.00 0.00 0.01 0.02 0.04 0.07 0.12 0.11 0.09 0.08 0.08 0.08 0.09 0.09 0.10 0.12 0.13 0.15 0.16 0.18
0.00 0.00 0.00 0.00 0.00 0.00 0.00 0.00 0.00 0.00 0.00 0.00 0.00 0.00 0.00 0.00 0.00 0.00 0.00 0.00 0.00 0.00 0.00 0.00 0.01 0.01 0.01 0.02 0.04 0.07 0.10 0.11 0.11 0.12 0.13 0.13 0.13 0.13 0.13 0.15 0.16 0.16 0.17
0.00 0.00 0.00 0.00 0.00 0.00 0.00 0.00 0.00 0.00 0.00 0.00 0.00 0.00 0.00 0.00 0.00 0.00 0.00 0.00 0.00 0.00 0.00 0.00 0.00 0.01 0.01 0.01 0.01 0.02 0.06 0.09 0.10 0.12 0.13 0.14 0.16 0.17 0.19 0.19 0.19 0.20 0.21
0.00 0.00 0.00 0.00 0.00 0.00 0.00 0.00 0.00 0.00 0.00 0.00 0.00 0.00 0.00 0.00 0.00 0.00 0.00 0.00 0.00 0.00 0.00 0.00 0.00 0.00 0.00 0.00 0.01 0.02 0.04 0.09 0.10 0.10 0.10 0.11 0.13 0.16 0.20 0.24 0.26 0.27 0.28
0.04 0.00 0.00 0.00 0.00 0.00 0.00 0.00 0.00 0.00 0.00 0.00 0.00 0.00 0.00 0.00 0.00 0.00 0.00 0.00 0.00 0.00 0.00 0.00 0.00 0.00 0.00 0.01 0.02 0.03 0.03 0.03 0.05 0.07 0.09 0.10 0.09 0.14 0.20 0.24 0.26 0.27 0.28
0.13 0.06 0.01 0.00 0.00 0.00 0.00 0.00 0.00 0.00 0.00 0.00 0.00 0.00 0.00 0.00 0.00 0.00 0.00 0.00 0.00 0.00 0.00 0.00 0.00 0.00 0.00 0.01 0.02 0.01 0.01 0.01 0.02 0.05 0.10 0.10 0.11 0.14 0.17 0.20 0.23 0.29 0.35
0.35 0.18 0.06 0.07 0.04 0.01 0.01 0.00 0.00 0.00 0.00 0.00 0.01 0.03 0.02 0.00 0.00 0.00 0.00 0.00 0.00 0.00 0.00 0.00 0.00 0.00 0.00 0.00 0.00 0.01 0.01 0.01 0.01 0.02 0.08 0.11 0.12 0.14 0.17 0.19 0.23 0.28 0.33
0.52 0.41 0.33 0.25 0.15 0.08 0.12 0.06 0.11 0.07 0.04 0.02 0.01 0.05 0.08 0.04 0.02 0.00 0.00 0.00 0.00 0.00 0.00 0.00 0.00 0.00 0.00 0.00 0.00 0.00 0.00 0.00 0.00 0.01 0.04 0.11 0.13 0.14 0.17 0.21 0.24 0.30 0.38
0.47 0.59 0.50 0.36 0.31 0.26 0.21 0.32 0.21 0.21 0.17 0.11 0.06 0.03 0.05 0.06 0.10 0.08 0.01 0.01 0.00 0.00 0.00 0.00 0.00 0.00 0.00 0.00 0.00 0.00 0.01 0.03 0.05 0.06 0.06 0.11 0.17 0.21 0.27 0.31 0.36 0.42 0.47
0.36 0.46 0.47 0.34 0.27 0.32 0.33 0.35 0.34 0.27 0.26 0.18 0.15 0.13 0.10 0.09 0.10 0.15 0.10 0.02 0.01 0.00 0.00 0.00 0.00 0.00 0.00 0.00 0.01 0.01 0.03 0.05 0.07 0.09 0.12 0.19 0.25 0.28 0.39 0.50 0.60 0.65 0.67
0.24 0.28 0.31 0.32 0.43 0.31 0.32 0.34 0.38 0.33 0.26 0.26 0.20 0.19 0.22 0.22 0.16 0.16 0.16 0.08 0.05 0.02 0.01 0.00 0.00 0.00 0.00 0.00 0.01 0.03 0.04 0.03 0.06 0.07 0.14 0.24 0.35 0.47 0.61 0.77 0.86 0.90 0.98
0.13 0.18 0.26 0.28 0.30 0.30 0.30 0.27 0.28 0.27 0.26 0.28 0.28 0.26 0.24 0.22 0.19 0.22 0.25 0.18 0.15 0.07 0.07 0.04 0.02 0.02 0.03 0.04 0.05 0.07 0.05 0.04 0.05 0.04 0.06 0.17 0.28 0.33 0.37 0.44 0.60 0.74 0.96
0.16 0.18 0.20 0.25 0.27 0.28 0.28 0.25 0.24 0.27 0.27 0.30 0.30 0.28 0.25 0.19 0.22 0.22 0.24 0.28 0.26 0.17 0.16 0.13 0.11 0.16 0.21 0.18 0.12 0.07 0.03 0.02 0.02 0.02 0.02 0.03 0.10 0.17 0.21 0.25 0.34 0.42 0.53
0.10 0.13 0.16 0.15 0.19 0.21 0.22 0.23 0.25 0.26 0.27 0.30 0.31 0.33 0.33 0.31 0.33 0.32 0.33 0.44 0.59 0.58 0.45 0.43 0.44 0.35 0.28 0.22 0.14 0.10 0.07 0.04 0.04 0.04 0.05 0.04 0.04 0.08 0.14 0.19 0.24 0.35 0.47
0.07 0.10 0.10 0.10 0.10 0.09 0.09 0.10 0.11 0.12 0.19 0.23 0.26 0.32 0.33 0.33 0.35 0.37 0.41 0.47 0.61 0.76 0.65 0.40 0.33 0.33 0.31 0.22 0.13 0.11 0.08 0.12 0.11 0.10 0.09 0.09 0.09 0.13 0.16 0.19 0.23 0.29 0.36
0.04 0.03 0.03 0.04 0.03 0.03 0.02 0.02 0.03 0.03 0.06 0.11 0.16 0.20 0.21 0.22 0.27 0.32 0.39 0.45 0.50 0.64 0.74 0.49 0.39 0.31 0.20 0.10 0.06 0.08 0.06 0.05 0.05 0.10 0.14 0.15 0.16 0.17 0.17 0.18 0.20 0.26 0.31
0.03 0.02 0.01 0.01 0.01 0.01 0.00 0.01 0.01 0.02 0.02 0.03 0.03 0.06 0.09 0.12 0.17 0.25 0.30 0.33 0.38 0.39 0.46 0.32 0.14 0.11 0.08 0.05 0.04 0.06 0.08 0.11 0.11 0.10 0.12 0.12 0.15 0.18 0.19 0.19 0.19 0.21 0.25
0.02 0.02 0.02 0.01 0.01 0.00 0.00 0.00 0.00 0.01 0.03 0.04 0.06 0.09 0.14 0.20 0.26 0.31 0.38 0.39 0.37 0.35 0.37 0.39 0.17 0.08 0.08 0.07 0.07 0.09 0.11 0.12 0.12 0.15 0.18 0.19 0.22 0.22 0.23 0.26 0.31 0.39 0.43
0.02 0.02 0.02 0.01 0.01 0.02 0.03 0.04 0.05 0.08 0.10 0.12 0.14 0.18 0.22 0.25 0.26 0.24 0.22 0.21 0.22 0.22 0.22 0.24 0.25 0.21 0.15 0.14 0.18 0.14 0.12 0.11 0.13 0.16 0.22 0.28 0.36 0.43 0.45 0.48 0.48 0.44 0.40
0.04 0.04 0.03 0.02 0.04 0.08 0.12 0.16 0.19 0.23 0.29 0.34 0.36 0.35 0.31 0.26 0.19 0.12 0.12 0.10 0.17 0.22 0.34 0.51 0.50 0.44 0.41 0.33 0.26 0.26 0.37 0.38 0.39 0.37 0.35 0.36 0.42 0.47 0.44 0.45 0.47 0.45 0.46
0.12 0.10 0.13 0.17 0.18 0.18 0.29 0.24 0.20 0.22 0.25 0.24 0.22 0.21 0.21 0.21 0.16 0.10 0.09 0.12 0.15 0.30 0.48 0.64 0.65 0.55 0.40 0.40 0.42 0.51 0.66 0.78 0.74 0.33 0.29 0.38 0.39 0.43 0.43 0.46 0.50 0.46 0.44
0.56 0.55 0.55 0.41 0.43 0.49 0.52 0.41 0.40 0.41 0.40 0.36 0.33 0.29 0.19 0.12 0.09 0.06 0.04 0.08 0.18 0.34 0.40 0.29 0.24 0.25 0.34 0.31 0.52 0.66 0.62 0.64 0.54 0.34 0.43 0.56 0.47 0.52 0.51 0.52 0.56 0.51 0.51
0.48 0.55 0.89 0.94 0.94 0.90 0.77 0.56 0.38 0.29 0.20 0.16 0.12 0.08 0.04 0.03 0.03 0.04 0.09 0.29 0.26 0.13 0.04 0.06 0.08 0.11 0.24 0.40 0.59 0.84 0.83 0.88 0.68 0.48 0.46 0.59 0.34 0.38 0.39 0.43 0.55 0.41 0.35
0.67 0.62 0.54 0.44 0.36 0.29 0.20 0.14 0.11 0.11 0.09 0.06 0.02 0.01 0.04 0.03 0.02 0.11 0.27 0.32 0.07 0.01 0.02 0.05 0.15 0.18 0.20 0.21 0.28 0.62 0.85 0.83 0.77 0.47 0.38 0.46 0.37 0.36 0.34 0.33 0.43 0.47 0.44
0.54 0.44 0.34 0.23 0.16 0.10 0.07 0.04 0.01 0.02 0.01 0.00 0.02 0.02 0.02 0.03 0.07 0.32 0.19 0.05 0.08 0.04 0.14 0.11 0.03 0.02 0.04 0.11 0.23 0.32 0.72 1.39 0.99 0.83 0.39 0.76 0.59 0.48 0.80 0.37 0.43 0.53 0.45

GFSMA_prec_precacc_075.txt.gz
Total_Precipitation_Accumulation
0.00 0.00 0.00 0.00 0.00 0.00 0.00 0.00 0.00 0.00 0.00 0.00 0.00 0.00 0.00 0.00 0.00 0.00 0.00 0.00 0.00 0.00 0.00 0.00 0.01 0.01 0.04 0.07 0.11 0.13 0.14 0.12 0.10 0.09 0.09 0.09 0.09 0.11 0.12 0.14 0.15 0.16 0.15
0.00 0.00 0.00 0.00 0.00 0.00 0.00 0.00 0.00 0.00 0.00 0.00 0.00 0.00 0.00 0.00 0.00 0.00 0.00 0.00 0.00 0.00 0.00 0.00 0.00 0.01 0.02 0.04 0.07 0.12 0.11 0.09 0.08 0.08 0.08 0.09 0.09 0.10 0.12 0.13 0.15 0.16 0.18
0.00 0.00 0.00 0.00 0.00 0.00 0.00 0.00 0.00 0.00 0.00 0.00 0.00 0.00 0.00 0.00 0.00 0.00 0.00 0.00 0.00 0.00 0.00 0.00 0.01 0.01 0.01 0.02 0.04 0.07 0.10 0.11 0.11 0.12 0.13 0.13 0.13 0.13 0.13 0.15 0.16 0.16 0.17
0.00 0.00 0.00 0.00 0.00 0.00 0.00 0.00 0.00 0.00 0.00 0.00 0.00 0.00 0.00 0.00 0.00 0.00 0.00 0.00 0.00 0.00 0.00 0.00 0.00 0.01 0.01 0.01 0.01 0.02 0.06 0.09 0.10 0.12 0.13 0.14 0.16 0.17 0.19 0.19 0.19 0.20 0.21
0.00 0.00 0.00 0.00 0.00 0.00 0.00 0.00 0.00 0.00 0.00 0.00 0.00 0.00 0.00 0.00 0.00 0.00 0.00 0.00 0.00 0.00 0.00 0.00 0.00 0.00 0.00 0.00 0.01 0.02 0.04 0.09 0.10 0.10 0.10 0.11 0.13 0.16 0.20 0.24 0.26 0.27 0.28
0.04 0.00 0.00 0.00 0.00 0.00 0.00 0.00 0.00 0.00 0.00 0.00 0.00 0.00 0.00 0.00 0.00 0.00 0.00 0.00 0.00 0.00 0.00 0.00 0.00 0.00 0.00 0.01 0.02 0.03 0.03 0.03 0.05 0.07 0.09 0.10 0.09 0.14 0.20 0.24 0.26 0.27 0.28
0.13 0.06 0.01 0.00 0.00 0.00 0.00 0.00 0.00 0.00 0.00 0.00 0.00 0.00 0.00 0.00 0.00 0.00 0.00 0.00 0.00 0.00 0.00 0.00 0.00 0.00 0.00 0.01 0.02 0.01 0.01 0.01 0.02 0.05 0.10 0.10 0.11 0.14 0.17 0.20 0.23 0.29 0.35
0.38 0.19 0.06 0.07 0.04 0.01 0.01 0.00 0.01 0.01 0.01 0.00 0.01 0.03 0.02 0.00 0.00 0.00 0.00 0.00 0.00 0.00 0.00 0.00 0.00 0.00 0.00 0.00 0.00 0.01 0.01 0.01 0.01 0.02 0.08 0.11 0.12 0.14 0.17 0.19 0.23 0.28 0.33
0.54 0.43 0.36 0.26 0.15 0.09 0.14 0.07 0.16 0.16 0.09 0.05 0.02 0.05 0.08 0.04 0.02 0.00 0.00 0.00 0.00 0.00 0.00 0.00 0.00 0.00 0.00 0.00 0.00 0.00 0.00 0.00 0.00 0.01 0.04 0.11 0.13 0.14 0.17 0.21 0.24 0.30 0.38
0.50 0.64 0.56 0.39 0.33 0.29 0.23 0.41 0.31 0.31 0.30 0.18 0.12 0.04 0.06 0.07 0.10 0.08 0.02 0.02 0.00 0.00 0.00 0.00 0.00 0.00 0.00 0.00 0.00 0.00 0.01 0.03 0.05 0.06 0.06 0.11 0.17 0.21 0.27 0.31 0.36 0.42 0.47
0.36 0.46 0.47 0.36 0.29 0.35 0.35 0.38 0.40 0.31 0.34 0.26 0.21 0.22 0.17 0.14 0.12 0.16 0.12 0.04 0.02 0.01 0.01 0.00 0.00 0.00 0.00 0.00 0.01 0.01 0.03 0.05 0.07 0.09 0.12 0.19 0.25 0.28 0.39 0.50 0.60 0.65 0.67
0.24 0.28 0.31 0.32 0.43 0.31 0.33 0.37 0.41 0.37 0.30 0.31 0.26 0.27 0.35 0.33 0.24 0.22 0.19 0.11 0.08 0.04 0.02 0.00 0.00 0.00 0.01 0.01 0.02 0.04 0.05 0.05 0.08 0.11 0.16 0.26 0.36 0.47 0.61 0.77 0.86 0.90 0.98
0.13 0.18 0.27 0.29 0.30 0.30 0.30 0.27 0.28 0.28 0.29 0.34 0.35 0.31 0.29 0.28 0.27 0.30 0.31 0.23 0.21 0.14 0.15 0.09 0.07 0.08 0.10 0.13 0.17 0.19 0.21 0.23 0.23 0.16 0.11 0.18 0.28 0.33 0.37 0.44 0.60 0.74 0.96
0.16 0.18 0.20 0.25 0.27 0.28 0.29 0.26 0.26 0.28 0.29 0.34 0.39 0.38 0.34 0.28 0.30 0.29 0.31 0.33 0.30 0.20 0.19 0.19 0.19 0.27 0.38 0.47 0.48 0.42 0.31 0.26 0.20 0.16 0.07 0.04 0.10 0.17 0.21 0.25 0.34 0.42 0.53
0.10 0.13 0.16 0.15 0.19 0.21 0.22 0.24 0.26 0.26 0.28 0.32 0.35 0.39 0.41 0.38 0.40 0.39 0.40 0.50 0.67 0.65 0.50 0.49 0.53 0.54 0.52 0.44 0.37 0.35 0.29 0.21 0.14 0.08 0.06 0.04 0.04 0.08 0.14 0.19 0.24 0.35 0.47
0.07 0.10 0.10 0.10 0.10 0.09 0.09 0.10 0.11 0.12 0.19 0.23 0.28 0.34 0.36 0.37 0.41 0.42 0.47 0.53 0.66 0.86 0.76 0.50 0.48 0.50 0.50 0.43 0.34 0.25 0.15 0.14 0.11 0.10 0.09 0.09 0.09 0.13 0.16 0.19 0.23 0.29 0.36
0.04 0.03 0.03 0.04 0.03 0.03 0.02 0.02 0.03 0.03 0.06 0.11 0.16 0.20 0.21 0.22 0.28 0.34 0.41 0.47 0.54 0.70 0.79 0.54 0.47 0.36 0.26 0.15 0.07 0.08 0.06 0.05 0.05 0.10 0.14 0.15 0.16 0.17 0.17 0.18 0.20 0.26 0.31
0.03 0.02 0.01 0.01 0.01 0.01 0.00 0.01 0.01 0.02 0.02 0.03 0.04 0.06 0.09 0.12 0.17 0.25 0.31 0.34 0.40 0.41 0.48 0.34 0.14 0.11 0.08 0.05 0.04 0.06 0.08 0.11 0.11 0.10 0.12 0.12 0.15 0.18 0.19 0.19 0.19 0.21 0.25
0.02 0.02 0.02 0.01 0.01 0.00 0.00 0.00 0.00 0.01 0.03 0.04 0.06 0.09 0.14 0.21 0.26 0.31 0.38 0.40 0.38 0.36 0.37 0.40 0.18 0.08 0.08 0.07 0.07 0.09 0.11 0.12 0.12 0.15 0.18 0.19 0.22 0.22 0.23 0.26 0.31 0.39 0.43
0.02 0.02 0.02 0.01 0.01 0.02 0.03 0.04 0.05 0.08 0.10 0.12 0.15 0.18 0.23 0.26 0.26 0.24 0.22 0.23 0.25 0.26 0.27 0.28 0.25 0.21 0.15 0.14 0.18 0.14 0.12 0.11 0.13 0.16 0.22 0.28 0.36 0.43 0.45 0.48 0.48 0.44 0.40
0.04 0.04 0.03 0.02 0.04 0.08 0.12 0.16 0.19 0.23 0.29 0.34 0.37 0.35 0.31 0.27 0.21 0.13 0.16 0.16 0.23 0.25 0.35 0.51 0.50 0.44 0.41 0.33 0.26 0.26 0.37 0.38 0.39 0.37 0.35 0.36 0.42 0.47 0.44 0.45 0.47 0.45 0.46
0.12 0.10 0.13 0.17 0.18 0.18 0.29 0.24 0.20 0.22 0.25 0.24 0.22 0.21 0.21 0.23 0.18 0.15 0.16 0.18 0.18 0.31 0.48 0.64 0.65 0.55 0.40 0.40 0.42 0.51 0.66 0.78 0.74 0.33 0.29 0.38 0.39 0.43 0.43 0.46 0.50 0.46 0.44
0.56 0.55 0.55 0.41 0.43 0.49 0.52 0.41 0.40 0.41 0.40 0.36 0.33 0.29 0.20 0.14 0.12 0.09 0.06 0.09 0.18 0.34 0.40 0.29 0.24 0.25 0.34 0.31 0.52 0.66 0.62 0.64 0.54 0.34 0.43 0.56 0.47 0.52 0.51 0.52 0.56 0.51 0.51
0.48 0.55 0.89 0.94 0.94 0.90 0.77 0.56 0.38 0.29 0.20 0.16 0.12 0.08 0.04 0.03 0.03 0.04 0.09 0.29 0.26 0.13 0.04 0.06 0.08 0.11 0.24 0.40 0.59 0.84 0.83 0.88 0.68 0.48 0.46 0.59 0.34 0.38 0.39 0.43 0.55 0.41 0.35
0.67 0.62 0.54 0.44 0.36 0.29 0.20 0.14 0.11 0.11 0.09 0.06 0.02 0.01 0.04 0.03 0.02 0.11 0.27 0.32 0.07 0.01 0.02 0.05 0.15 0.18 0.20 0.21 0.28 0.62 0.85 0.83 0.77 0.47 0.38 0.46 0.37 0.36 0.34 0.33 0.43 0.47 0.44
0.54 0.44 0.34 0.23 0.16 0.10 0.07 0.04 0.01 0.02 0.01 0.00 0.02 0.02 0.02 0.03 0.07 0.32 0.19 0.05 0.08 0.04 0.14 0.11 0.03 0.02 0.04 0.11 0.23 0.32 0.72 1.39 0.99 0.83 0.39 0.76 0.59 0.48 0.81 0.37 0.43 0.53 0.45

GFSMA_prec_precacc_078.txt.gz
Total_Precipitation_Accumulation
0.00 0.00 0.00 0.00 0.00 0.00 0.00 0.00 0.00 0.00 0.00 0.00 0.00 0.00 0.00 0.00 0.00 0.00 0.00 0.00 0.00 0.00 0.00 0.00 0.01 0.01 0.04 0.07 0.11 0.13 0.14 0.12 0.10 0.09 0.09 0.09 0.09 0.11 0.12 0.14 0.15 0.16 0.15
0.00 0.00 0.00 0.00 0.00 0.00 0.00 0.00 0.00 0.00 0.00 0.00 0.00 0.00 0.00 0.00 0.00 0.00 0.00 0.00 0.00 0.00 0.00 0.00 0.00 0.01 0.02 0.04 0.07 0.12 0.11 0.09 0.08 0.08 0.08 0.09 0.09 0.10 0.12 0.13 0.15 0.16 0.18
0.00 0.00 0.00 0.00 0.00 0.00 0.00 0.00 0.00 0.00 0.00 0.00 0.00 0.00 0.00 0.00 0.00 0.00 0.00 0.00 0.00 0.00 0.00 0.00 0.01 0.01 0.01 0.02 0.04 0.07 0.10 0.11 0.11 0.12 0.13 0.13 0.13 0.13 0.13 0.15 0.16 0.16 0.17
0.00 0.00 0.00 0.00 0.00 0.00 0.00 0.00 0.00 0.00 0.00 0.00 0.00 0.00 0.00 0.00 0.00 0.00 0.00 0.00 0.00 0.00 0.00 0.00 0.00 0.01 0.01 0.01 0.01 0.02 0.06 0.09 0.10 0.12 0.13 0.14 0.16 0.17 0.19 0.19 0.19 0.20 0.21
0.00 0.00 0.00 0.00 0.00 0.00 0.00 0.00 0.00 0.00 0.00 0.00 0.00 0.00 0.00 0.00 0.00 0.00 0.00 0.00 0.00 0.00 0.00 0.00 0.00 0.00 0.00 0.00 0.01 0.02 0.04 0.09 0.10 0.10 0.10 0.11 0.13 0.16 0.20 0.24 0.26 0.27 0.28
0.04 0.00 0.00 0.00 0.00 0.00 0.00 0.00 0.00 0.00 0.00 0.00 0.00 0.00 0.00 0.00 0.00 0.00 0.00 0.00 0.00 0.00 0.00 0.00 0.00 0.00 0.00 0.01 0.02 0.03 0.03 0.03 0.05 0.07 0.09 0.10 0.09 0.14 0.20 0.24 0.26 0.27 0.28
0.13 0.06 0.01 0.00 0.00 0.00 0.00 0.00 0.00 0.00 0.00 0.00 0.00 0.00 0.00 0.00 0.00 0.00 0.00 0.00 0.00 0.00 0.00 0.00 0.00 0.00 0.00 0.01 0.02 0.01 0.01 0.01 0.02 0.05 0.10 0.10 0.11 0.14 0.17 0.20 0.23 0.29 0.35
0.39 0.19 0.06 0.08 0.04 0.01 0.01 0.00 0.01 0.01 0.01 0.01 0.02 0.03 0.02 0.00 0.00 0.00 0.00 0.00 0.00 0.00 0.00 0.00 0.00 0.00 0.00 0.00 0.00 0.01 0.01 0.01 0.01 0.02 0.08 0.11 0.12 0.14 0.17 0.19 0.23 0.28 0.33
0.58 0.45 0.36 0.26 0.16 0.09 0.14 0.07 0.16 0.16 0.11 0.09 0.04 0.07 0.08 0.04 0.02 0.00 0.00 0.00 0.00 0.00 0.00 0.00 0.00 0.00 0.00 0.00 0.00 0.00 0.00 0.00 0.00 0.01 0.04 0.11 0.13 0.14 0.17 0.21 0.24 0.30 0.38
0.52 0.67 0.58 0.41 0.34 0.29 0.23 0.41 0.32 0.35 0.34 0.23 0.19 0.08 0.08 0.08 0.11 0.08 0.03 0.04 0.01 0.00 0.00 0.00 0.00 0.01 0.02 0.02 0.01 0.01 0.02 0.03 0.05 0.06 0.06 0.11 0.17 0.21 0.27 0.31 0.36 0.42 0.47
0.36 0.47 0.48 0.38 0.31 0.35 0.35 0.38 0.42 0.34 0.36 0.30 0.24 0.27 0.22 0.17 0.14 0.17 0.13 0.07 0.05 0.02 0.02 0.03 0.04 0.07 0.10 0.12 0.11 0.06 0.09 0.11 0.12 0.13 0.16 0.23 0.29 0.32 0.42 0.51 0.60 0.65 0.67
0.24 0.28 0.32 0.33 0.43 0.31 0.33 0.38 0.45 0.42 0.35 0.35 0.30 0.31 0.41 0.40 0.29 0.26 0.22 0.13 0.11 0.06 0.04 0.03 0.05 0.07 0.08 0.12 0.16 0.18 0.16 0.15 0.22 0.29 0.35 0.45 0.56 0.66 0.75 0.83 0.88 0.91 0.98
0.13 0.18 0.27 0.29 0.31 0.31 0.31 0.27 0.29 0.30 0.31 0.37 0.40 0.36 0.35 0.34 0.33 0.36 0.39 0.29 0.25 0.17 0.17 0.15 0.16 0.17 0.16 0.18 0.26 0.36 0.40 0.42 0.45 0.44 0.42 0.48 0.54 0.52 0.46 0.48 0.62 0.74 0.96
0.16 0.18 0.20 0.25 0.27 0.29 0.29 0.27 0.26 0.28 0.29 0.35 0.41 0.40 0.37 0.31 0.35 0.36 0.38 0.41 0.37 0.25 0.23 0.21 0.20 0.29 0.41 0.53 0.61 0.59 0.47 0.46 0.42 0.35 0.27 0.23 0.23 0.23 0.23 0.26 0.34 0.42 0.53
0.10 0.13 0.16 0.15 0.19 0.21 0.22 0.24 0.26 0.26 0.28 0.32 0.35 0.39 0.42 0.40 0.43 0.43 0.46 0.58 0.78 0.75 0.56 0.53 0.60 0.64 0.66 0.62 0.56 0.51 0.42 0.37 0.25 0.17 0.12 0.07 0.06 0.09 0.15 0.19 0.24 0.35 0.47
0.07 0.10 0.10 0.10 0.10 0.09 0.09 0.10 0.11 0.12 0.19 0.23 0.28 0.34 0.36 0.37 0.41 0.43 0.48 0.54 0.68 0.91 0.84 0.58 0.59 0.66 0.72 0.66 0.52 0.35 0.21 0.20 0.15 0.12 0.10 0.10 0.09 0.13 0.16 0.19 0.23 0.29 0.36
0.04 0.03 0.03 0.04 0.03 0.03 0.02 0.02 0.03 0.03 0.06 0.11 0.16 0.20 0.21 0.22 0.28 0.34 0.42 0.47 0.55 0.71 0.80 0.56 0.48 0.40 0.30 0.17 0.09 0.09 0.08 0.06 0.06 0.11 0.14 0.15 0.16 0.17 0.17 0.18 0.20 0.26 0.31
0.03 0.02 0.01 0.01 0.01 0.01 0.00 0.01 0.01 0.02 0.02 0.03 0.04 0.06 0.10 0.12 0.18 0.26 0.31 0.35 0.41 0.42 0.49 0.34 0.15 0.13 0.11 0.07 0.05 0.06 0.08 0.11 0.11 0.10 0.12 0.12 0.15 0.18 0.19 0.19 0.19 0.21 0.25
0.02 0.02 0.02 0.01 0.01 0.00 0.00 0.00 0.00 0.01 0.03 0.04 0.06 0.09 0.14 0.21 0.27 0.32 0.39 0.41 0.38 0.36 0.38 0.41 0.19 0.10 0.09 0.07 0.07 0.09 0.11 0.12 0.12 0.15 0.18 0.19 0.22 0.22 0.23 0.26 0.31 0.39 0.43
0.02 0.02 0.02 0.01 0.01 0.02 0.03 0.04 0.05 0.08 0.10 0.12 0.15 0.18 0.23 0.26 0.26 0.24 0.23 0.23 0.25 0.26 0.27 0.30 0.31 0.25 0.16 0.14 0.18 0.14 0.12 0.11 0.13 0.16 0.22 0.28 0.36 0.43 0.45 0.48 0.48 0.44 0.40
0.04 0.04 0.03 0.02 0.04 0.08 0.12 0.16 0.19 0.23 0.29 0.34 0.37 0.35 0.31 0.27 0.21 0.13 0.16 0.17 0.23 0.25 0.35 0.52 0.51 0.44 0.41 0.33 0.26 0.26 0.37 0.38 0.39 0.37 0.35 0.36 0.42 0.47 0.44 0.45 0.47 0.45 0.46
0.12 0.10 0.13 0.17 0.18 0.18 0.29 0.24 0.20 0.22 0.25 0.24 0.22 0.21 0.22 0.23 0.18 0.15 0.16 0.18 0.18 0.33 0.50 0.65 0.65 0.55 0.40 0.40 0.42 0.51 0.66 0.78 0.74 0.33 0.29 0.38 0.39 0.43 0.43 0.46 0.50 0.46 0.44
0.56 0.55 0.56 0.41 0.43 0.49 0.52 0.41 0.40 0.41 0.40 0.36 0.33 0.29 0.20 0.14 0.12 0.09 0.06 0.09 0.18 0.35 0.40 0.29 0.24 0.25 0.34 0.31 0.52 0.66 0.62 0.64 0.54 0.34 0.43 0.56 0.47 0.52 0.51 0.52 0.56 0.51 0.51
0.48 0.55 0.89 0.94 0.94 0.90 0.77 0.56 0.38 0.29 0.20 0.16 0.12 0.08 0.04 0.03 0.03 0.04 0.09 0.29 0.26 0.13 0.04 0.06 0.08 0.11 0.24 0.40 0.59 0.84 0.83 0.88 0.68 0.48 0.46 0.59 0.34 0.38 0.39 0.43 0.55 0.41 0.35
0.67 0.62 0.54 0.44 0.36 0.29 0.20 0.14 0.11 0.11 0.09 0.06 0.02 0.01 0.04 0.03 0.02 0.11 0.27 0.32 0.07 0.01 0.02 0.05 0.15 0.18 0.20 0.21 0.28 0.62 0.85 0.83 0.77 0.47 0.38 0.46 0.37 0.36 0.34 0.33 0.43 0.47 0.44
0.54 0.44 0.34 0.23 0.16 0.10 0.07 0.04 0.01 0.02 0.01 0.00 0.02 0.02 0.02 0.03 0.07 0.32 0.19 0.05 0.08 0.04 0.14 0.11 0.03 0.02 0.04 0.11 0.23 0.32 0.72 1.39 0.99 0.83 0.39 0.77 0.59 0.48 0.81 0.37 0.43 0.53 0.45

GFSMA_prec_precacc_084.txt.gz
Total_Precipitation_Accumulation
0.00 0.00 0.00 0.00 0.00 0.00 0.00 0.00 0.00 0.00 0.00 0.00 0.00 0.00 0.00 0.00 0.00 0.00 0.00 0.00 0.00 0.00 0.00 0.00 0.01 0.01 0.04 0.07 0.11 0.13 0.14 0.12 0.10 0.09 0.09 0.09 0.09 0.11 0.12 0.14 0.15 0.16 0.15
0.00 0.00 0.00 0.00 0.00 0.00 0.00 0.00 0.00 0.00 0.00 0.00 0.00 0.00 0.00 0.00 0.00 0.00 0.00 0.00 0.00 0.00 0.00 0.00 0.00 0.01 0.02 0.04 0.07 0.12 0.11 0.09 0.08 0.08 0.08 0.09 0.09 0.10 0.12 0.13 0.15 0.16 0.18
0.00 0.00 0.00 0.00 0.00 0.00 0.00 0.00 0.00 0.00 0.00 0.00 0.00 0.00 0.00 0.00 0.00 0.00 0.00 0.00 0.00 0.00 0.00 0.00 0.01 0.01 0.01 0.02 0.04 0.07 0.10 0.11 0.11 0.12 0.13 0.13 0.13 0.13 0.13 0.15 0.16 0.16 0.17
0.00 0.00 0.00 0.00 0.00 0.00 0.00 0.00 0.00 0.00 0.00 0.00 0.00 0.00 0.00 0.00 0.00 0.00 0.00 0.00 0.00 0.00 0.00 0.00 0.00 0.01 0.01 0.01 0.01 0.02 0.06 0.09 0.10 0.12 0.13 0.14 0.16 0.17 0.19 0.19 0.19 0.20 0.21
0.00 0.00 0.00 0.00 0.00 0.00 0.00 0.00 0.00 0.00 0.00 0.00 0.00 0.00 0.00 0.00 0.00 0.00 0.00 0.00 0.00 0.00 0.00 0.00 0.00 0.00 0.00 0.00 0.01 0.02 0.04 0.09 0.10 0.10 0.10 0.11 0.13 0.16 0.20 0.24 0.26 0.27 0.28
0.04 0.00 0.00 0.00 0.00 0.00 0.00 0.00 0.00 0.00 0.00 0.00 0.00 0.00 0.00 0.00 0.00 0.00 0.00 0.00 0.00 0.00 0.00 0.00 0.00 0.00 0.00 0.01 0.02 0.03 0.03 0.04 0.05 0.07 0.09 0.10 0.09 0.14 0.20 0.24 0.26 0.27 0.28
0.13 0.06 0.01 0.00 0.00 0.00 0.00 0.00 0.00 0.00 0.00 0.00 0.00 0.00 0.00 0.00 0.00 0.00 0.00 0.00 0.00 0.00 0.00 0.00 0.00 0.00 0.00 0.01 0.02 0.01 0.01 0.02 0.03 0.05 0.10 0.10 0.11 0.14 0.17 0.20 0.23 0.29 0.35
0.46 0.21 0.06 0.08 0.04 0.01 0.01 0.00 0.01 0.01 0.01 0.01 0.02 0.04 0.02 0.00 0.00 0.00 0.00 0.00 0.00 0.00 0.00 0.00 0.00 0.00 0.00 0.00 0.00 0.02 0.03 0.05 0.12 0.09 0.11 0.14 0.14 0.15 0.17 0.19 0.23 0.28 0.33
0.63 0.46 0.36 0.27 0.16 0.10 0.15 0.09 0.17 0.17 0.12 0.12 0.09 0.14 0.10 0.04 0.02 0.00 0.00 0.00 0.00 0.00 0.00 0.00 0.00 0.00 0.00 0.02 0.06 0.10 0.11 0.14 0.20 0.22 0.18 0.23 0.26 0.25 0.26 0.28 0.30 0.36 0.42
0.55 0.68 0.59 0.43 0.36 0.31 0.24 0.42 0.35 0.36 0.36 0.23 0.21 0.11 0.11 0.09 0.12 0.08 0.03 0.05 0.02 0.01 0.00 0.00 0.00 0.02 0.07 0.13 0.21 0.27 0.28 0.30 0.35 0.39 0.37 0.44 0.50 0.51 0.52 0.54 0.57 0.62 0.66
0.38 0.48 0.52 0.45 0.35 0.36 0.36 0.39 0.42 0.34 0.37 0.33 0.30 0.35 0.27 0.20 0.15 0.19 0.16 0.08 0.06 0.03 0.02 0.03 0.05 0.08 0.13 0.21 0.30 0.36 0.39 0.43 0.48 0.53 0.62 0.67 0.63 0.59 0.72 0.85 0.92 0.94 0.94
0.24 0.28 0.32 0.33 0.44 0.31 0.33 0.39 0.46 0.43 0.36 0.38 0.33 0.35 0.47 0.46 0.32 0.29 0.25 0.14 0.12 0.07 0.05 0.04 0.06 0.08 0.09 0.16 0.24 0.34 0.41 0.47 0.62 0.69 0.73 0.76 0.79 0.90 1.04 1.18 1.25 1.30 1.34
0.13 0.18 0.27 0.29 0.32 0.33 0.32 0.29 0.30 0.30 0.31 0.37 0.41 0.37 0.36 0.36 0.34 0.38 0.42 0.32 0.26 0.18 0.19 0.16 0.17 0.18 0.19 0.23 0.34 0.54 0.60 0.64 0.69 0.71 0.74 0.88 0.92 0.87 0.83 0.83 0.92 0.97 1.13
0.16 0.18 0.20 0.25 0.28 0.29 0.30 0.27 0.26 0.28 0.29 0.35 0.41 0.40 0.37 0.32 0.35 0.36 0.38 0.42 0.39 0.27 0.24 0.22 0.21 0.31 0.45 0.62 0.75 0.79 0.67 0.69 0.69 0.69 0.64 0.56 0.52 0.49 0.40 0.39 0.45 0.51 0.58
0.10 0.13 0.16 0.15 0.19 0.21 0.22 0.24 0.26 0.26 0.28 0.32 0.35 0.39 0.42 0.40 0.43 0.43 0.47 0.60 0.80 0.77 0.57 0.53 0.60 0.64 0.69 0.67 0.64 0.60 0.55 0.56 0.43 0.30 0.22 0.16 0.14 0.16 0.22 0.24 0.28 0.37 0.49
0.07 0.10 0.10 0.10 0.10 0.09 0.09 0.10 0.11 0.12 0.19 0.23 0.28 0.34 0.36 0.37 0.41 0.43 0.48 0.55 0.69 0.91 0.84 0.58 0.59 0.66 0.73 0.69 0.61 0.44 0.31 0.30 0.22 0.18 0.16 0.14 0.12 0.14 0.16 0.19 0.23 0.29 0.36
0.04 0.03 0.03 0.04 0.03 0.03 0.02 0.02 0.03 0.03 0.06 0.11 0.16 0.20 0.21 0.22 0.28 0.34 0.42 0.48 0.55 0.71 0.80 0.56 0.48 0.40 0.31 0.18 0.11 0.15 0.13 0.11 0.09 0.13 0.15 0.16 0.16 0.17 0.17 0.18 0.20 0.26 0.31
0.03 0.02 0.01 0.01 0.01 0.01 0.00 0.01 0.01 0.02 0.02 0.03 0.04 0.06 0.10 0.12 0.18 0.26 0.31 0.35 0.41 0.43 0.49 0.35 0.15 0.13 0.12 0.09 0.06 0.08 0.09 0.11 0.11 0.11 0.12 0.12 0.15 0.18 0.19 0.19 0.19 0.21 0.25
0.02 0.02 0.02 0.01 0.01 0.00 0.00 0.00 0.00 0.01 0.03 0.04 0.06 0.09 0.14 0.21 0.27 0.32 0.39 0.41 0.38 0.36 0.38 0.41 0.19 0.10 0.09 0.07 0.08 0.10 0.12 0.12 0.12 0.15 0.18 0.19 0.22 0.22 0.23 0.26 0.31 0.39 0.43
0.02 0.02 0.02 0.01 0.01 0.02 0.03 0.04 0.05 0.08 0.10 0.12 0.15 0.18 0.23 0.26 0.26 0.24 0.23 0.23 0.25 0.26 0.27 0.30 0.31 0.25 0.16 0.14 0.18 0.14 0.12 0.11 0.13 0.16 0.22 0.28 0.36 0.43 0.45 0.48 0.48 0.44 0.40
0.04 0.04 0.03 0.02 0.04 0.08 0.12 0.16 0.19 0.23 0.29 0.34 0.37 0.35 0.31 0.28 0.21 0.13 0.16 0.17 0.23 0.25 0.35 0.52 0.51 0.44 0.41 0.33 0.26 0.26 0.37 0.38 0.39 0.37 0.35 0.36 0.42 0.47 0.44 0.45 0.47 0.45 0.46
0.12 0.10 0.13 0.17 0.18 0.18 0.30 0.24 0.20 0.22 0.25 0.24 0.22 0.21 0.22 0.24 0.19 0.16 0.16 0.18 0.18 0.33 0.50 0.65 0.65 0.55 0.40 0.40 0.42 0.51 0.66 0.78 0.74 0.33 0.29 0.38 0.39 0.43 0.43 0.46 0.50 0.46 0.44
0.56 0.55 0.56 0.41 0.43 0.49 0.53 0.41 0.40 0.41 0.40 0.36 0.33 0.29 0.20 0.14 0.12 0.09 0.06 0.09 0.18 0.35 0.40 0.29 0.24 0.25 0.34 0.31 0.52 0.66 0.62 0.64 0.54 0.34 0.43 0.56 0.47 0.52 0.51 0.52 0.56 0.51 0.51
0.48 0.55 0.89 0.94 0.94 0.90 0.78 0.56 0.38 0.29 0.20 0.16 0.12 0.08 0.04 0.03 0.03 0.04 0.09 0.29 0.26 0.13 0.04 0.06 0.08 0.11 0.24 0.40 0.59 0.84 0.83 0.88 0.68 0.48 0.46 0.59 0.34 0.38 0.39 0.43 0.55 0.41 0.35
0.67 0.62 0.54 0.44 0.36 0.29 0.20 0.14 0.11 0.11 0.09 0.06 0.02 0.01 0.04 0.03 0.02 0.11 0.27 0.32 0.07 0.01 0.02 0.05 0.15 0.18 0.20 0.21 0.28 0.62 0.85 0.83 0.77 0.47 0.38 0.46 0.37 0.36 0.34 0.33 0.43 0.47 0.44
0.54 0.44 0.34 0.23 0.16 0.10 0.07 0.04 0.01 0.02 0.01 0.00 0.02 0.02 0.02 0.03 0.07 0.32 0.19 0.05 0.08 0.04 0.14 0.11 0.03 0.02 0.04 0.11 0.23 0.32 0.72 1.39 0.99 0.83 0.39 0.77 0.59 0.48 0.81 0.37 0.43 0.53 0.45

GFSMA_prec_precacc_087.txt.gz
Total_Precipitation_Accumulation
0.00 0.00 0.00 0.00 0.00 0.00 0.00 0.00 0.00 0.00 0.00 0.00 0.00 0.00 0.00 0.00 0.00 0.00 0.00 0.00 0.00 0.00 0.00 0.00 0.01 0.01 0.04 0.07 0.11 0.13 0.14 0.12 0.10 0.09 0.09 0.09 0.09 0.11 0.12 0.14 0.15 0.16 0.15
0.00 0.00 0.00 0.00 0.00 0.00 0.00 0.00 0.00 0.00 0.00 0.00 0.00 0.00 0.00 0.00 0.00 0.00 0.00 0.00 0.00 0.00 0.00 0.00 0.00 0.01 0.02 0.04 0.07 0.12 0.11 0.09 0.08 0.08 0.08 0.09 0.09 0.10 0.12 0.13 0.15 0.16 0.18
0.00 0.00 0.00 0.00 0.00 0.00 0.00 0.00 0.00 0.00 0.00 0.00 0.00 0.00 0.00 0.00 0.00 0.00 0.00 0.00 0.00 0.00 0.00 0.00 0.01 0.01 0.01 0.02 0.04 0.07 0.10 0.11 0.11 0.12 0.13 0.13 0.13 0.13 0.13 0.15 0.16 0.16 0.17
0.00 0.00 0.00 0.00 0.00 0.00 0.00 0.00 0.00 0.00 0.00 0.00 0.00 0.00 0.00 0.00 0.00 0.00 0.00 0.00 0.00 0.00 0.00 0.00 0.01 0.01 0.01 0.01 0.01 0.02 0.06 0.09 0.10 0.12 0.13 0.14 0.16 0.17 0.19 0.19 0.19 0.20 0.21
0.00 0.00 0.00 0.00 0.00 0.00 0.00 0.00 0.00 0.00 0.00 0.00 0.00 0.00 0.00 0.00 0.00 0.00 0.00 0.00 0.00 0.00 0.00 0.00 0.00 0.00 0.00 0.00 0.01 0.02 0.05 0.09 0.10 0.10 0.10 0.11 0.13 0.16 0.20 0.24 0.26 0.27 0.28
0.04 0.00 0.00 0.00 0.00 0.00 0.00 0.00 0.00 0.00 0.00 0.00 0.00 0.00 0.00 0.00 0.00 0.00 0.00 0.00 0.00 0.00 0.00 0.00 0.00 0.00 0.00 0.01 0.02 0.03 0.03 0.04 0.05 0.07 0.09 0.10 0.10 0.14 0.20 0.24 0.26 0.27 0.28
0.13 0.06 0.01 0.00 0.00 0.00 0.00 0.00 0.00 0.00 0.00 0.00 0.00 0.00 0.00 0.00 0.00 0.00 0.00 0.00 0.00 0.00 0.00 0.00 0.00 0.00 0.00 0.01 0.02 0.01 0.02 0.04 0.05 0.05 0.11 0.14 0.15 0.16 0.18 0.20 0.23 0.30 0.36
0.48 0.22 0.07 0.09 0.04 0.01 0.01 0.00 0.01 0.01 0.01 0.01 0.02 0.04 0.02 0.00 0.00 0.00 0.00 0.00 0.00 0.00 0.00 0.00 0.00 0.00 0.00 0.00 0.00 0.02 0.03 0.06 0.16 0.13 0.13 0.17 0.19 0.19 0.23 0.25 0.28 0.31 0.36
0.64 0.47 0.37 0.27 0.20 0.12 0.17 0.10 0.18 0.18 0.12 0.12 0.09 0.14 0.10 0.04 0.02 0.00 0.00 0.00 0.00 0.00 0.00 0.00 0.00 0.00 0.00 0.02 0.06 0.10 0.11 0.14 0.22 0.31 0.26 0.25 0.30 0.30 0.31 0.33 0.36 0.43 0.50
0.57 0.70 0.61 0.44 0.37 0.33 0.27 0.44 0.36 0.36 0.36 0.23 0.21 0.11 0.11 0.09 0.12 0.09 0.03 0.05 0.02 0.01 0.00 0.00 0.00 0.02 0.07 0.13 0.21 0.27 0.28 0.31 0.37 0.44 0.52 0.48 0.53 0.55 0.55 0.56 0.61 0.69 0.75
0.39 0.51 0.55 0.49 0.37 0.37 0.36 0.39 0.42 0.34 0.37 0.33 0.30 0.35 0.27 0.20 0.15 0.20 0.17 0.08 0.06 0.03 0.02 0.03 0.05 0.08 0.13 0.21 0.30 0.36 0.40 0.44 0.49 0.55 0.68 0.71 0.66 0.62 0.76 0.90 1.01 1.09 1.09
0.24 0.28 0.32 0.34 0.44 0.32 0.33 0.39 0.46 0.43 0.36 0.38 0.33 0.35 0.47 0.46 0.32 0.29 0.25 0.15 0.12 0.07 0.05 0.04 0.06 0.08 0.09 0.16 0.24 0.34 0.41 0.47 0.64 0.73 0.81 0.87 0.86 0.95 1.11 1.30 1.44 1.50 1.58
0.13 0.18 0.27 0.29 0.32 0.33 0.32 0.29 0.30 0.30 0.31 0.37 0.41 0.37 0.36 0.36 0.34 0.38 0.42 0.32 0.27 0.19 0.19 0.16 0.17 0.18 0.19 0.23 0.34 0.54 0.60 0.65 0.71 0.75 0.80 0.97 1.03 1.00 0.98 0.94 1.06 1.15 1.27
0.16 0.18 0.20 0.25 0.28 0.29 0.30 0.27 0.26 0.28 0.29 0.35 0.41 0.40 0.37 0.32 0.35 0.36 0.38 0.42 0.39 0.27 0.24 0.22 0.21 0.31 0.45 0.62 0.75 0.79 0.67 0.69 0.70 0.71 0.66 0.61 0.56 0.50 0.42 0.42 0.50 0.56 0.64
0.10 0.13 0.16 0.15 0.19 0.21 0.22 0.24 0.26 0.26 0.29 0.32 0.35 0.39 0.42 0.40 0.43 0.43 0.47 0.60 0.80 0.77 0.57 0.53 0.60 0.64 0.69 0.67 0.64 0.60 0.55 0.57 0.44 0.30 0.22 0.16 0.14 0.17 0.22 0.25 0.28 0.37 0.50
0.07 0.10 0.10 0.11 0.10 0.10 0.10 0.10 0.11 0.12 0.19 0.23 0.28 0.34 0.36 0.37 0.41 0.43 0.48 0.55 0.69 0.91 0.84 0.58 0.59 0.66 0.73 0.69 0.61 0.44 0.31 0.30 0.22 0.18 0.16 0.14 0.12 0.14 0.16 0.19 0.23 0.29 0.36
0.04 0.03 0.03 0.04 0.04 0.03 0.02 0.02 0.03 0.03 0.06 0.11 0.16 0.20 0.21 0.22 0.28 0.34 0.42 0.48 0.55 0.71 0.80 0.56 0.48 0.40 0.31 0.18 0.11 0.15 0.13 0.11 0.09 0.14 0.15 0.16 0.16 0.17 0.17 0.18 0.20 0.26 0.31
0.03 0.02 0.01 0.01 0.01 0.01 0.00 0.01 0.01 0.02 0.02 0.03 0.04 0.06 0.10 0.12 0.18 0.26 0.31 0.35 0.41 0.43 0.49 0.35 0.15 0.13 0.12 0.09 0.06 0.08 0.09 0.11 0.11 0.11 0.12 0.12 0.15 0.18 0.19 0.19 0.19 0.21 0.25
0.02 0.02 0.02 0.01 0.01 0.00 0.00 0.00 0.00 0.01 0.03 0.04 0.06 0.09 0.14 0.21 0.27 0.32 0.39 0.41 0.38 0.36 0.38 0.41 0.19 0.10 0.09 0.07 0.08 0.10 0.12 0.12 0.12 0.15 0.18 0.19 0.22 0.22 0.23 0.26 0.31 0.39 0.43
0.02 0.02 0.02 0.01 0.01 0.02 0.03 0.04 0.05 0.08 0.10 0.12 0.15 0.18 0.23 0.26 0.26 0.24 0.23 0.23 0.25 0.26 0.27 0.30 0.31 0.25 0.16 0.14 0.18 0.14 0.12 0.11 0.13 0.16 0.22 0.28 0.36 0.43 0.45 0.48 0.48 0.44 0.40
0.04 0.04 0.03 0.02 0.04 0.08 0.12 0.16 0.19 0.23 0.29 0.34 0.37 0.35 0.31 0.28 0.21 0.13 0.16 0.17 0.23 0.25 0.35 0.52 0.51 0.44 0.41 0.33 0.26 0.26 0.37 0.38 0.39 0.37 0.35 0.36 0.42 0.47 0.44 0.45 0.47 0.45 0.46
0.12 0.10 0.13 0.17 0.18 0.18 0.30 0.24 0.20 0.22 0.25 0.24 0.22 0.21 0.22 0.24 0.19 0.16 0.16 0.18 0.18 0.33 0.50 0.65 0.65 0.55 0.40 0.40 0.42 0.51 0.66 0.78 0.74 0.33 0.29 0.38 0.39 0.43 0.43 0.46 0.50 0.46 0.44
0.56 0.55 0.56 0.41 0.43 0.49 0.53 0.42 0.40 0.41 0.40 0.36 0.33 0.29 0.20 0.14 0.12 0.09 0.06 0.09 0.18 0.35 0.40 0.29 0.24 0.25 0.34 0.31 0.52 0.66 0.62 0.64 0.54 0.34 0.43 0.56 0.47 0.52 0.51 0.52 0.56 0.51 0.51
0.48 0.55 0.89 0.94 0.94 0.90 0.78 0.56 0.38 0.29 0.20 0.16 0.12 0.08 0.04 0.03 0.03 0.04 0.09 0.29 0.26 0.13 0.04 0.06 0.08 0.11 0.24 0.40 0.59 0.84 0.83 0.88 0.68 0.48 0.46 0.59 0.34 0.38 0.39 0.43 0.55 0.41 0.35
0.67 0.62 0.54 0.44 0.36 0.29 0.20 0.14 0.11 0.11 0.09 0.06 0.02 0.01 0.04 0.03 0.02 0.11 0.27 0.32 0.07 0.01 0.02 0.05 0.15 0.18 0.20 0.21 0.28 0.62 0.85 0.83 0.77 0.47 0.38 0.46 0.37 0.36 0.34 0.33 0.43 0.47 0.44
0.54 0.44 0.34 0.23 0.16 0.10 0.07 0.04 0.01 0.02 0.01 0.00 0.02 0.02 0.02 0.03 0.07 0.32 0.19 0.05 0.08 0.04 0.14 0.11 0.03 0.02 0.04 0.11 0.23 0.32 0.72 1.39 0.99 0.83 0.39 0.77 0.59 0.48 0.81 0.37 0.43 0.53 0.45

GFSMA_prec_precacc_090.txt.gz
Total_Precipitation_Accumulation
0.00 0.00 0.00 0.00 0.00 0.00 0.00 0.00 0.00 0.00 0.00 0.00 0.00 0.00 0.00 0.00 0.00 0.00 0.00 0.00 0.00 0.00 0.00 0.00 0.01 0.01 0.04 0.07 0.11 0.13 0.14 0.12 0.10 0.09 0.09 0.09 0.09 0.11 0.12 0.14 0.15 0.16 0.15
0.00 0.00 0.00 0.00 0.00 0.00 0.00 0.00 0.00 0.00 0.00 0.00 0.00 0.00 0.00 0.00 0.00 0.00 0.00 0.00 0.00 0.00 0.00 0.00 0.01 0.01 0.02 0.04 0.07 0.12 0.11 0.09 0.08 0.08 0.08 0.09 0.09 0.10 0.12 0.13 0.15 0.16 0.18
0.00 0.00 0.00 0.00 0.00 0.00 0.00 0.00 0.00 0.00 0.00 0.00 0.00 0.00 0.00 0.00 0.00 0.00 0.00 0.00 0.00 0.00 0.00 0.00 0.01 0.02 0.01 0.02 0.04 0.07 0.10 0.11 0.11 0.12 0.13 0.13 0.13 0.13 0.13 0.15 0.16 0.16 0.17
0.00 0.00 0.00 0.00 0.00 0.00 0.00 0.00 0.00 0.00 0.00 0.00 0.00 0.00 0.00 0.00 0.00 0.00 0.00 0.00 0.00 0.00 0.00 0.00 0.01 0.03 0.02 0.01 0.01 0.02 0.06 0.09 0.10 0.12 0.13 0.14 0.16 0.17 0.19 0.19 0.19 0.20 0.21
0.00 0.00 0.00 0.00 0.00 0.00 0.00 0.00 0.00 0.00 0.00 0.00 0.00 0.00 0.00 0.00 0.00 0.00 0.00 0.00 0.00 0.00 0.00 0.00 0.00 0.00 0.01 0.00 0.01 0.03 0.06 0.09 0.10 0.10 0.10 0.11 0.13 0.16 0.20 0.24 0.26 0.27 0.28
0.04 0.00 0.00 0.00 0.00 0.00 0.00 0.00 0.00 0.00 0.00 0.00 0.00 0.00 0.00 0.00 0.00 0.00 0.00 0.00 0.00 0.00 0.00 0.00 0.00 0.00 0.00 0.01 0.02 0.03 0.06 0.08 0.06 0.07 0.09 0.10 0.10 0.14 0.20 0.24 0.26 0.27 0.28
0.13 0.06 0.01 0.00 0.00 0.00 0.00 0.00 0.00 0.00 0.00 0.00 0.00 0.00 0.00 0.00 0.00 0.00 0.00 0.00 0.00 0.00 0.00 0.00 0.00 0.00 0.00 0.01 0.02 0.01 0.02 0.08 0.11 0.07 0.11 0.14 0.15 0.16 0.18 0.20 0.23 0.30 0.36
0.50 0.22 0.07 0.09 0.04 0.01 0.01 0.00 0.01 0.01 0.01 0.01 0.02 0.04 0.02 0.00 0.00 0.00 0.00 0.00 0.00 0.00 0.00 0.00 0.00 0.00 0.00 0.00 0.00 0.02 0.04 0.08 0.24 0.20 0.14 0.17 0.19 0.19 0.23 0.25 0.28 0.31 0.37
0.68 0.47 0.37 0.27 0.20 0.12 0.17 0.11 0.19 0.18 0.13 0.12 0.09 0.14 0.10 0.05 0.02 0.00 0.00 0.00 0.00 0.00 0.00 0.00 0.00 0.00 0.00 0.02 0.06 0.10 0.12 0.15 0.25 0.42 0.29 0.25 0.30 0.30 0.31 0.33 0.36 0.43 0.51
0.58 0.73 0.62 0.45 0.37 0.33 0.28 0.47 0.38 0.37 0.36 0.23 0.21 0.11 0.11 0.09 0.13 0.09 0.04 0.05 0.02 0.01 0.00 0.00 0.00 0.02 0.07 0.13 0.21 0.27 0.28 0.31 0.38 0.49 0.66 0.59 0.56 0.56 0.57 0.58 0.63 0.71 0.77
0.40 0.53 0.57 0.50 0.38 0.37 0.36 0.39 0.42 0.34 0.37 0.33 0.30 0.35 0.27 0.20 0.15 0.20 0.17 0.08 0.06 0.03 0.02 0.03 0.05 0.08 0.13 0.21 0.30 0.36 0.40 0.44 0.49 0.58 0.78 0.85 0.75 0.67 0.82 0.96 1.08 1.16 1.22
0.24 0.28 0.32 0.34 0.45 0.32 0.33 0.39 0.46 0.43 0.36 0.38 0.33 0.35 0.47 0.47 0.32 0.29 0.25 0.15 0.12 0.07 0.05 0.04 0.06 0.08 0.09 0.16 0.24 0.34 0.41 0.47 0.64 0.75 0.87 1.02 1.05 1.08 1.16 1.35 1.52 1.63 1.70
0.13 0.18 0.27 0.29 0.32 0.33 0.32 0.29 0.30 0.30 0.31 0.37 0.41 0.38 0.37 0.37 0.35 0.38 0.42 0.33 0.27 0.19 0.19 0.16 0.17 0.18 0.19 0.23 0.34 0.54 0.60 0.65 0.71 0.75 0.82 1.01 1.06 1.04 0.99 0.95 1.07 1.17 1.30
0.16 0.18 0.20 0.25 0.28 0.29 0.30 0.27 0.26 0.28 0.29 0.35 0.41 0.40 0.38 0.32 0.35 0.36 0.39 0.43 0.39 0.27 0.24 0.22 0.21 0.31 0.45 0.62 0.75 0.79 0.67 0.69 0.70 0.72 0.67 0.61 0.57 0.51 0.42 0.42 0.50 0.57 0.65
0.10 0.13 0.16 0.15 0.19 0.21 0.22 0.24 0.26 0.27 0.29 0.32 0.35 0.39 0.42 0.40 0.43 0.43 0.47 0.60 0.81 0.77 0.57 0.53 0.60 0.64 0.69 0.67 0.64 0.60 0.55 0.57 0.44 0.30 0.22 0.17 0.14 0.17 0.22 0.25 0.28 0.37 0.50
0.07 0.10 0.10 0.11 0.10 0.10 0.10 0.10 0.12 0.13 0.20 0.24 0.28 0.34 0.36 0.37 0.41 0.43 0.48 0.55 0.69 0.91 0.84 0.58 0.59 0.66 0.73 0.69 0.61 0.44 0.31 0.30 0.22 0.18 0.16 0.14 0.12 0.15 0.16 0.19 0.23 0.29 0.36
0.04 0.03 0.03 0.04 0.04 0.03 0.02 0.02 0.03 0.04 0.07 0.11 0.16 0.20 0.21 0.22 0.28 0.34 0.42 0.48 0.55 0.71 0.80 0.56 0.48 0.40 0.31 0.18 0.11 0.15 0.13 0.11 0.09 0.14 0.15 0.16 0.16 0.17 0.17 0.18 0.20 0.26 0.31
0.03 0.02 0.01 0.01 0.01 0.01 0.00 0.01 0.01 0.02 0.02 0.03 0.04 0.06 0.10 0.12 0.18 0.26 0.31 0.35 0.41 0.43 0.49 0.35 0.15 0.13 0.12 0.09 0.06 0.08 0.09 0.11 0.11 0.11 0.12 0.12 0.15 0.18 0.19 0.19 0.19 0.21 0.25
0.02 0.02 0.02 0.01 0.01 0.00 0.00 0.00 0.00 0.01 0.03 0.04 0.06 0.09 0.14 0.21 0.27 0.32 0.39 0.41 0.38 0.36 0.38 0.41 0.19 0.10 0.09 0.07 0.08 0.10 0.12 0.12 0.12 0.15 0.18 0.19 0.22 0.22 0.23 0.26 0.31 0.39 0.43
0.02 0.02 0.02 0.01 0.01 0.02 0.03 0.04 0.05 0.08 0.10 0.12 0.15 0.18 0.23 0.26 0.26 0.24 0.23 0.23 0.25 0.26 0.27 0.30 0.31 0.25 0.16 0.14 0.18 0.14 0.12 0.11 0.13 0.16 0.22 0.28 0.36 0.43 0.45 0.48 0.48 0.44 0.40
0.04 0.04 0.03 0.02 0.04 0.08 0.12 0.16 0.19 0.23 0.29 0.34 0.37 0.35 0.31 0.28 0.21 0.13 0.16 0.17 0.23 0.25 0.35 0.52 0.51 0.44 0.41 0.33 0.26 0.26 0.37 0.38 0.39 0.37 0.35 0.36 0.42 0.47 0.44 0.45 0.47 0.45 0.46
0.12 0.10 0.13 0.17 0.18 0.18 0.30 0.24 0.20 0.22 0.25 0.24 0.22 0.21 0.22 0.24 0.19 0.16 0.16 0.18 0.18 0.33 0.50 0.65 0.65 0.55 0.40 0.40 0.42 0.51 0.66 0.78 0.74 0.33 0.29 0.38 0.39 0.43 0.43 0.46 0.50 0.46 0.44
0.56 0.55 0.56 0.41 0.43 0.49 0.54 0.42 0.40 0.41 0.40 0.36 0.33 0.29 0.20 0.14 0.12 0.09 0.06 0.09 0.18 0.35 0.40 0.29 0.24 0.25 0.34 0.31 0.52 0.66 0.62 0.64 0.54 0.34 0.43 0.56 0.47 0.52 0.51 0.52 0.56 0.51 0.51
0.48 0.55 0.89 0.94 0.94 0.91 0.78 0.57 0.38 0.29 0.20 0.16 0.12 0.08 0.04 0.03 0.03 0.04 0.09 0.29 0.26 0.13 0.04 0.06 0.08 0.11 0.24 0.40 0.59 0.84 0.83 0.88 0.68 0.48 0.46 0.59 0.34 0.38 0.39 0.43 0.55 0.41 0.35
0.67 0.62 0.54 0.44 0.36 0.30 0.20 0.14 0.11 0.11 0.09 0.06 0.02 0.01 0.04 0.03 0.02 0.11 0.27 0.32 0.07 0.01 0.02 0.05 0.15 0.18 0.20 0.21 0.28 0.62 0.85 0.83 0.77 0.47 0.38 0.46 0.37 0.36 0.34 0.33 0.43 0.47 0.44
0.54 0.44 0.34 0.23 0.16 0.10 0.07 0.04 0.01 0.02 0.01 0.00 0.02 0.02 0.02 0.03 0.07 0.32 0.19 0.05 0.08 0.04 0.14 0.11 0.03 0.02 0.04 0.11 0.23 0.32 0.72 1.39 0.99 0.83 0.39 0.77 0.59 0.48 0.81 0.37 0.43 0.53 0.45

GFSMA_prec_precacc_093.txt.gz
Total_Precipitation_Accumulation
0.00 0.00 0.00 0.00 0.00 0.00 0.00 0.00 0.00 0.00 0.00 0.00 0.00 0.00 0.00 0.00 0.00 0.00 0.00 0.00 0.00 0.00 0.00 0.01 0.01 0.01 0.04 0.07 0.11 0.13 0.14 0.12 0.10 0.09 0.09 0.09 0.09 0.11 0.12 0.14 0.15 0.16 0.15
0.00 0.00 0.00 0.00 0.00 0.00 0.00 0.00 0.00 0.00 0.00 0.00 0.00 0.00 0.00 0.00 0.00 0.00 0.00 0.00 0.00 0.00 0.00 0.00 0.01 0.01 0.02 0.04 0.07 0.12 0.11 0.09 0.08 0.08 0.08 0.09 0.09 0.10 0.12 0.13 0.15 0.16 0.18
0.00 0.00 0.00 0.00 0.00 0.00 0.00 0.00 0.00 0.00 0.00 0.00 0.00 0.00 0.00 0.00 0.00 0.00 0.00 0.00 0.00 0.00 0.00 0.00 0.01 0.02 0.02 0.02 0.04 0.07 0.10 0.11 0.11 0.12 0.13 0.13 0.13 0.13 0.13 0.15 0.16 0.16 0.17
0.00 0.00 0.00 0.00 0.00 0.00 0.00 0.00 0.00 0.00 0.00 0.00 0.00 0.00 0.00 0.00 0.00 0.00 0.00 0.00 0.00 0.00 0.00 0.00 0.01 0.04 0.03 0.02 0.01 0.02 0.06 0.09 0.10 0.12 0.13 0.14 0.16 0.17 0.19 0.19 0.19 0.20 0.21
0.00 0.00 0.00 0.00 0.00 0.00 0.00 0.00 0.00 0.00 0.00 0.00 0.00 0.00 0.00 0.00 0.00 0.00 0.00 0.00 0.00 0.00 0.00 0.00 0.00 0.00 0.02 0.01 0.02 0.04 0.08 0.09 0.10 0.10 0.10 0.11 0.13 0.16 0.20 0.24 0.26 0.27 0.28
0.04 0.00 0.00 0.00 0.00 0.00 0.00 0.00 0.00 0.00 0.00 0.00 0.00 0.00 0.00 0.00 0.00 0.00 0.00 0.00 0.00 0.00 0.00 0.00 0.00 0.00 0.00 0.01 0.03 0.03 0.08 0.14 0.08 0.07 0.09 0.10 0.10 0.14 0.20 0.24 0.26 0.27 0.28
0.13 0.06 0.01 0.00 0.00 0.00 0.00 0.00 0.00 0.00 0.00 0.00 0.00 0.00 0.00 0.00 0.00 0.00 0.00 0.00 0.00 0.00 0.00 0.00 0.00 0.00 0.00 0.01 0.02 0.01 0.02 0.10 0.21 0.12 0.11 0.14 0.15 0.16 0.18 0.20 0.23 0.30 0.36
0.50 0.22 0.07 0.09 0.04 0.01 0.01 0.00 0.01 0.01 0.01 0.01 0.02 0.04 0.02 0.00 0.00 0.00 0.00 0.00 0.00 0.00 0.00 0.00 0.00 0.00 0.00 0.00 0.00 0.02 0.04 0.08 0.27 0.31 0.19 0.18 0.19 0.19 0.23 0.25 0.28 0.31 0.37
0.72 0.49 0.38 0.27 0.20 0.12 0.17 0.11 0.19 0.18 0.13 0.12 0.10 0.14 0.10 0.05 0.02 0.00 0.00 0.00 0.00 0.00 0.00 0.00 0.00 0.00 0.00 0.02 0.06 0.10 0.12 0.15 0.26 0.45 0.40 0.30 0.31 0.30 0.31 0.33 0.36 0.43 0.51
0.73 0.88 0.74 0.50 0.38 0.33 0.28 0.47 0.38 0.37 0.36 0.24 0.21 0.11 0.12 0.10 0.13 0.09 0.04 0.05 0.02 0.01 0.00 0.00 0.00 0.02 0.07 0.13 0.21 0.27 0.28 0.31 0.38 0.50 0.75 0.73 0.63 0.58 0.58 0.59 0.65 0.75 0.78
0.52 0.66 0.67 0.58 0.44 0.39 0.37 0.39 0.42 0.34 0.37 0.33 0.30 0.35 0.27 0.20 0.15 0.20 0.17 0.08 0.06 0.03 0.02 0.03 0.05 0.08 0.13 0.21 0.30 0.36 0.40 0.44 0.49 0.58 0.81 0.95 0.95 0.83 0.90 1.06 1.13 1.18 1.24
0.26 0.29 0.36 0.39 0.48 0.34 0.34 0.39 0.46 0.43 0.36 0.38 0.33 0.35 0.47 0.47 0.32 0.29 0.25 0.15 0.13 0.07 0.05 0.04 0.06 0.08 0.09 0.16 0.24 0.34 0.41 0.47 0.64 0.75 0.88 1.07 1.13 1.23 1.36 1.44 1.54 1.63 1.70
0.14 0.20 0.28 0.30 0.32 0.33 0.32 0.29 0.30 0.30 0.31 0.37 0.41 0.38 0.37 0.37 0.35 0.38 0.42 0.33 0.27 0.19 0.19 0.16 0.17 0.18 0.19 0.23 0.34 0.54 0.60 0.65 0.71 0.76 0.86 1.04 1.07 1.05 1.00 0.97 1.08 1.17 1.30
0.16 0.18 0.20 0.25 0.28 0.29 0.31 0.28 0.27 0.29 0.30 0.36 0.41 0.41 0.38 0.32 0.35 0.36 0.39 0.43 0.40 0.27 0.24 0.22 0.21 0.31 0.45 0.62 0.75 0.79 0.67 0.70 0.70 0.72 0.69 0.62 0.57 0.51 0.42 0.42 0.50 0.57 0.65
0.10 0.13 0.16 0.15 0.19 0.21 0.22 0.24 0.27 0.27 0.29 0.33 0.36 0.40 0.42 0.40 0.43 0.43 0.47 0.60 0.81 0.77 0.57 0.53 0.60 0.64 0.69 0.67 0.64 0.60 0.55 0.57 0.45 0.30 0.23 0.17 0.14 0.17 0.22 0.25 0.28 0.37 0.50
0.07 0.10 0.10 0.11 0.10 0.10 0.10 0.10 0.12 0.13 0.20 0.24 0.28 0.35 0.37 0.37 0.41 0.43 0.48 0.55 0.69 0.91 0.84 0.58 0.59 0.66 0.73 0.69 0.61 0.44 0.31 0.30 0.22 0.18 0.16 0.14 0.12 0.15 0.16 0.19 0.23 0.29 0.36
0.04 0.03 0.03 0.04 0.04 0.03 0.02 0.02 0.03 0.04 0.07 0.12 0.17 0.21 0.22 0.22 0.28 0.34 0.42 0.48 0.55 0.71 0.80 0.56 0.48 0.40 0.31 0.18 0.11 0.15 0.13 0.11 0.09 0.14 0.15 0.16 0.16 0.17 0.17 0.18 0.20 0.26 0.31
0.03 0.02 0.01 0.01 0.01 0.01 0.00 0.01 0.01 0.02 0.02 0.03 0.04 0.06 0.10 0.12 0.18 0.26 0.31 0.35 0.41 0.43 0.49 0.35 0.15 0.13 0.12 0.09 0.06 0.08 0.09 0.11 0.11 0.11 0.12 0.12 0.15 0.18 0.19 0.19 0.19 0.21 0.25
0.02 0.02 0.02 0.01 0.01 0.00 0.00 0.00 0.00 0.01 0.03 0.04 0.06 0.09 0.14 0.21 0.27 0.32 0.39 0.41 0.38 0.36 0.38 0.41 0.19 0.10 0.09 0.07 0.08 0.10 0.12 0.12 0.12 0.15 0.18 0.19 0.22 0.22 0.23 0.26 0.31 0.39 0.43
0.02 0.02 0.02 0.01 0.01 0.02 0.03 0.04 0.05 0.08 0.10 0.12 0.15 0.18 0.23 0.26 0.26 0.24 0.23 0.23 0.25 0.26 0.27 0.30 0.31 0.25 0.16 0.14 0.18 0.14 0.12 0.11 0.13 0.16 0.22 0.28 0.36 0.43 0.45 0.48 0.48 0.44 0.40
0.04 0.04 0.03 0.02 0.04 0.08 0.12 0.16 0.19 0.23 0.29 0.34 0.37 0.35 0.31 0.28 0.21 0.13 0.16 0.17 0.23 0.25 0.35 0.52 0.51 0.44 0.41 0.33 0.26 0.26 0.37 0.38 0.39 0.37 0.35 0.36 0.42 0.47 0.44 0.45 0.47 0.45 0.46
0.12 0.10 0.13 0.17 0.18 0.18 0.30 0.24 0.20 0.22 0.25 0.24 0.22 0.21 0.22 0.24 0.19 0.16 0.16 0.18 0.18 0.33 0.50 0.65 0.65 0.55 0.40 0.40 0.42 0.51 0.66 0.78 0.74 0.33 0.29 0.38 0.39 0.43 0.43 0.46 0.50 0.46 0.44
0.56 0.55 0.56 0.41 0.43 0.49 0.54 0.42 0.40 0.41 0.40 0.36 0.33 0.29 0.20 0.14 0.12 0.09 0.06 0.09 0.18 0.35 0.40 0.29 0.24 0.25 0.34 0.31 0.52 0.66 0.62 0.64 0.54 0.34 0.43 0.56 0.47 0.52 0.51 0.52 0.56 0.51 0.51
0.48 0.55 0.89 0.94 0.94 0.91 0.79 0.57 0.39 0.29 0.20 0.16 0.12 0.08 0.04 0.03 0.03 0.04 0.09 0.29 0.26 0.13 0.04 0.06 0.08 0.11 0.24 0.40 0.59 0.84 0.83 0.88 0.68 0.48 0.46 0.59 0.34 0.38 0.39 0.43 0.55 0.41 0.35
0.67 0.62 0.54 0.44 0.36 0.30 0.21 0.14 0.11 0.11 0.09 0.06 0.02 0.01 0.04 0.03 0.02 0.11 0.27 0.32 0.07 0.01 0.02 0.05 0.15 0.18 0.20 0.21 0.28 0.62 0.85 0.83 0.77 0.47 0.38 0.46 0.37 0.36 0.34 0.33 0.43 0.47 0.44
0.54 0.44 0.34 0.23 0.16 0.10 0.07 0.04 0.01 0.02 0.01 0.00 0.02 0.02 0.02 0.03 0.07 0.32 0.19 0.05 0.08 0.04 0.14 0.11 0.03 0.02 0.04 0.11 0.23 0.32 0.72 1.39 0.99 0.83 0.39 0.77 0.59 0.48 0.81 0.37 0.43 0.53 0.45

GFSMA_prec_precacc_096.txt.gz
Total_Precipitation_Accumulation
0.00 0.00 0.00 0.00 0.00 0.00 0.00 0.00 0.00 0.00 0.00 0.00 0.00 0.00 0.00 0.00 0.00 0.00 0.00 0.00 0.00 0.00 0.00 0.01 0.01 0.01 0.04 0.07 0.11 0.13 0.14 0.12 0.10 0.09 0.09 0.09 0.09 0.11 0.12 0.14 0.15 0.16 0.15
0.00 0.00 0.00 0.00 0.00 0.00 0.00 0.00 0.00 0.00 0.00 0.00 0.00 0.00 0.00 0.00 0.00 0.00 0.00 0.00 0.00 0.00 0.00 0.00 0.01 0.01 0.02 0.04 0.07 0.12 0.11 0.09 0.08 0.08 0.08 0.09 0.09 0.10 0.12 0.13 0.15 0.16 0.18
0.00 0.00 0.00 0.00 0.00 0.00 0.00 0.00 0.00 0.00 0.00 0.00 0.00 0.00 0.00 0.00 0.00 0.00 0.00 0.00 0.00 0.00 0.00 0.00 0.01 0.03 0.02 0.02 0.04 0.07 0.10 0.11 0.11 0.12 0.13 0.13 0.13 0.13 0.13 0.15 0.16 0.16 0.17
0.00 0.00 0.00 0.00 0.00 0.00 0.00 0.00 0.00 0.00 0.00 0.00 0.00 0.00 0.00 0.00 0.00 0.00 0.00 0.00 0.00 0.00 0.00 0.00 0.01 0.05 0.07 0.04 0.02 0.03 0.06 0.09 0.10 0.12 0.13 0.14 0.16 0.17 0.19 0.19 0.19 0.20 0.21
0.00 0.00 0.00 0.00 0.00 0.00 0.00 0.00 0.00 0.00 0.00 0.00 0.00 0.00 0.00 0.00 0.00 0.00 0.00 0.00 0.00 0.00 0.00 0.00 0.00 0.01 0.03 0.03 0.04 0.06 0.13 0.11 0.10 0.10 0.10 0.11 0.13 0.16 0.20 0.24 0.26 0.27 0.28
0.04 0.00 0.00 0.00 0.00 0.00 0.00 0.00 0.00 0.00 0.00 0.00 0.00 0.00 0.00 0.00 0.00 0.00 0.00 0.00 0.00 0.00 0.00 0.00 0.00 0.00 0.00 0.02 0.03 0.04 0.10 0.21 0.13 0.07 0.09 0.10 0.10 0.14 0.20 0.24 0.26 0.27 0.28
0.13 0.06 0.01 0.00 0.00 0.00 0.00 0.00 0.00 0.00 0.00 0.00 0.00 0.00 0.00 0.00 0.00 0.00 0.00 0.00 0.00 0.00 0.00 0.00 0.00 0.00 0.00 0.01 0.02 0.01 0.05 0.15 0.27 0.20 0.13 0.14 0.15 0.16 0.18 0.20 0.23 0.30 0.36
0.52 0.22 0.07 0.09 0.04 0.01 0.01 0.00 0.01 0.01 0.01 0.01 0.02 0.04 0.02 0.01 0.00 0.00 0.00 0.00 0.00 0.00 0.00 0.00 0.00 0.00 0.00 0.00 0.00 0.02 0.04 0.08 0.27 0.35 0.29 0.21 0.20 0.19 0.23 0.25 0.28 0.31 0.37
0.84 0.60 0.46 0.36 0.28 0.15 0.18 0.11 0.19 0.18 0.13 0.12 0.10 0.14 0.11 0.05 0.02 0.00 0.00 0.00 0.00 0.00 0.00 0.00 0.00 0.00 0.00 0.02 0.06 0.10 0.12 0.15 0.26 0.45 0.44 0.38 0.34 0.30 0.31 0.33 0.36 0.43 0.51
0.83 1.02 0.88 0.64 0.52 0.41 0.39 0.56 0.46 0.46 0.41 0.26 0.22 0.12 0.12 0.10 0.13 0.09 0.04 0.05 0.02 0.01 0.00 0.00 0.00 0.02 0.07 0.13 0.21 0.27 0.28 0.31 0.38 0.50 0.75 0.79 0.77 0.68 0.60 0.60 0.66 0.77 0.80
0.58 0.72 0.71 0.61 0.46 0.43 0.44 0.51 0.53 0.43 0.41 0.34 0.30 0.35 0.27 0.20 0.15 0.20 0.17 0.08 0.06 0.03 0.02 0.03 0.05 0.08 0.13 0.21 0.30 0.36 0.40 0.44 0.49 0.58 0.81 0.97 1.00 0.96 1.03 1.18 1.24 1.22 1.24
0.34 0.39 0.47 0.50 0.54 0.43 0.43 0.50 0.55 0.49 0.43 0.39 0.33 0.36 0.47 0.47 0.33 0.29 0.25 0.15 0.13 0.07 0.05 0.04 0.06 0.08 0.09 0.16 0.24 0.34 0.41 0.47 0.64 0.75 0.89 1.10 1.14 1.25 1.48 1.67 1.64 1.66 1.71
0.17 0.25 0.34 0.39 0.39 0.38 0.35 0.31 0.33 0.32 0.31 0.37 0.41 0.38 0.38 0.38 0.35 0.38 0.42 0.33 0.28 0.19 0.19 0.16 0.17 0.18 0.19 0.23 0.34 0.54 0.60 0.65 0.71 0.77 0.89 1.07 1.07 1.05 1.02 1.02 1.11 1.18 1.31
0.17 0.18 0.20 0.25 0.28 0.30 0.31 0.29 0.28 0.30 0.31 0.37 0.43 0.43 0.40 0.33 0.36 0.37 0.39 0.43 0.40 0.27 0.24 0.22 0.21 0.31 0.45 0.62 0.75 0.79 0.68 0.70 0.71 0.73 0.69 0.62 0.57 0.51 0.42 0.42 0.51 0.57 0.65
0.10 0.13 0.16 0.15 0.19 0.21 0.22 0.24 0.27 0.27 0.30 0.34 0.37 0.41 0.43 0.41 0.44 0.43 0.47 0.60 0.81 0.77 0.57 0.53 0.60 0.64 0.69 0.67 0.64 0.60 0.55 0.58 0.45 0.31 0.23 0.17 0.15 0.17 0.22 0.25 0.28 0.37 0.50
0.07 0.10 0.10 0.11 0.10 0.10 0.10 0.10 0.12 0.13 0.20 0.24 0.29 0.36 0.39 0.39 0.42 0.43 0.48 0.55 0.69 0.91 0.84 0.58 0.59 0.66 0.73 0.69 0.61 0.44 0.31 0.31 0.22 0.18 0.16 0.14 0.12 0.15 0.16 0.19 0.23 0.29 0.36
0.04 0.03 0.03 0.04 0.04 0.03 0.02 0.02 0.03 0.04 0.07 0.12 0.17 0.21 0.23 0.23 0.29 0.34 0.42 0.48 0.55 0.71 0.80 0.56 0.48 0.40 0.31 0.18 0.11 0.15 0.13 0.11 0.09 0.14 0.15 0.16 0.16 0.17 0.17 0.18 0.20 0.26 0.31
0.03 0.02 0.01 0.01 0.01 0.01 0.00 0.01 0.01 0.02 0.03 0.03 0.04 0.06 0.10 0.13 0.18 0.26 0.31 0.35 0.41 0.43 0.49 0.35 0.15 0.13 0.12 0.09 0.06 0.08 0.09 0.11 0.11 0.11 0.12 0.12 0.15 0.18 0.19 0.19 0.19 0.21 0.25
0.02 0.02 0.02 0.01 0.01 0.00 0.00 0.00 0.00 0.01 0.03 0.04 0.07 0.09 0.14 0.21 0.27 0.32 0.39 0.41 0.38 0.36 0.38 0.41 0.19 0.10 0.09 0.07 0.08 0.10 0.12 0.12 0.12 0.15 0.18 0.19 0.22 0.22 0.23 0.26 0.31 0.39 0.43
0.02 0.02 0.02 0.01 0.01 0.02 0.03 0.04 0.05 0.08 0.10 0.12 0.15 0.18 0.23 0.26 0.26 0.24 0.23 0.23 0.25 0.26 0.27 0.30 0.31 0.25 0.16 0.14 0.18 0.14 0.12 0.11 0.13 0.16 0.22 0.28 0.36 0.43 0.45 0.48 0.48 0.44 0.40
0.04 0.04 0.03 0.02 0.04 0.08 0.12 0.16 0.19 0.23 0.29 0.34 0.37 0.35 0.31 0.28 0.21 0.13 0.16 0.17 0.23 0.25 0.35 0.52 0.51 0.44 0.41 0.33 0.26 0.26 0.37 0.38 0.39 0.37 0.35 0.36 0.42 0.47 0.44 0.45 0.47 0.45 0.46
0.12 0.10 0.13 0.17 0.18 0.18 0.30 0.24 0.20 0.22 0.25 0.24 0.22 0.21 0.22 0.24 0.19 0.16 0.16 0.18 0.18 0.33 0.50 0.65 0.65 0.55 0.40 0.40 0.42 0.51 0.66 0.78 0.74 0.33 0.29 0.38 0.39 0.43 0.43 0.46 0.50 0.46 0.44
0.56 0.55 0.56 0.41 0.43 0.49 0.55 0.43 0.40 0.41 0.40 0.36 0.33 0.29 0.20 0.14 0.12 0.09 0.06 0.09 0.18 0.35 0.40 0.29 0.24 0.25 0.34 0.31 0.52 0.66 0.62 0.64 0.54 0.34 0.43 0.56 0.47 0.52 0.51 0.52 0.56 0.51 0.51
0.48 0.55 0.89 0.94 0.94 0.91 0.79 0.58 0.39 0.29 0.20 0.16 0.12 0.08 0.04 0.03 0.03 0.04 0.09 0.29 0.26 0.13 0.04 0.06 0.08 0.11 0.24 0.40 0.59 0.84 0.83 0.88 0.68 0.48 0.46 0.59 0.34 0.38 0.39 0.43 0.55 0.41 0.35
0.67 0.62 0.54 0.44 0.36 0.30 0.21 0.15 0.11 0.11 0.09 0.06 0.02 0.01 0.04 0.03 0.02 0.11 0.27 0.32 0.07 0.01 0.02 0.05 0.15 0.18 0.20 0.21 0.28 0.62 0.85 0.83 0.77 0.47 0.38 0.46 0.37 0.36 0.34 0.33 0.43 0.47 0.44
0.54 0.44 0.34 0.23 0.16 0.10 0.08 0.04 0.01 0.02 0.01 0.00 0.02 0.02 0.02 0.03 0.07 0.32 0.19 0.05 0.08 0.04 0.14 0.11 0.03 0.02 0.04 0.11 0.23 0.32 0.72 1.39 0.99 0.83 0.39 0.77 0.59 0.48 0.81 0.37 0.43 0.53 0.45

GFSMA_prec_precacc_099.txt.gz
Total_Precipitation_Accumulation
0.00 0.00 0.00 0.00 0.00 0.00 0.00 0.00 0.00 0.00 0.00 0.00 0.00 0.00 0.00 0.00 0.00 0.00 0.00 0.00 0.00 0.00 0.00 0.01 0.01 0.01 0.04 0.07 0.11 0.13 0.14 0.12 0.10 0.09 0.09 0.09 0.09 0.11 0.12 0.14 0.15 0.16 0.15
0.00 0.00 0.00 0.00 0.00 0.00 0.00 0.00 0.00 0.00 0.00 0.00 0.00 0.00 0.00 0.00 0.00 0.00 0.00 0.00 0.00 0.00 0.00 0.00 0.01 0.01 0.02 0.04 0.07 0.12 0.11 0.09 0.08 0.08 0.08 0.09 0.09 0.10 0.12 0.13 0.15 0.16 0.18
0.00 0.00 0.00 0.00 0.00 0.00 0.00 0.00 0.00 0.00 0.00 0.00 0.00 0.00 0.00 0.00 0.00 0.00 0.00 0.00 0.00 0.00 0.00 0.00 0.01 0.03 0.03 0.02 0.04 0.07 0.10 0.11 0.11 0.12 0.13 0.13 0.13 0.13 0.13 0.15 0.16 0.16 0.17
0.00 0.00 0.00 0.00 0.00 0.00 0.00 0.00 0.00 0.00 0.00 0.00 0.00 0.00 0.00 0.00 0.00 0.00 0.00 0.00 0.00 0.00 0.00 0.00 0.01 0.06 0.11 0.06 0.04 0.04 0.07 0.09 0.10 0.12 0.13 0.14 0.16 0.17 0.19 0.19 0.19 0.20 0.21
0.00 0.00 0.00 0.00 0.00 0.00 0.00 0.00 0.00 0.00 0.00 0.00 0.00 0.00 0.00 0.00 0.00 0.00 0.00 0.00 0.00 0.00 0.00 0.00 0.00 0.01 0.04 0.03 0.05 0.09 0.20 0.14 0.10 0.10 0.10 0.11 0.13 0.16 0.20 0.24 0.26 0.27 0.28
0.04 0.00 0.00 0.00 0.00 0.00 0.00 0.00 0.00 0.00 0.00 0.00 0.00 0.00 0.00 0.00 0.00 0.00 0.00 0.00 0.00 0.00 0.00 0.00 0.00 0.00 0.00 0.02 0.04 0.04 0.14 0.35 0.21 0.08 0.09 0.10 0.10 0.14 0.20 0.24 0.26 0.27 0.28
0.13 0.06 0.01 0.00 0.00 0.00 0.00 0.00 0.00 0.00 0.00 0.00 0.00 0.00 0.00 0.00 0.00 0.00 0.00 0.00 0.00 0.00 0.00 0.00 0.00 0.00 0.00 0.01 0.02 0.01 0.06 0.18 0.31 0.26 0.17 0.15 0.15 0.16 0.18 0.20 0.23 0.30 0.36
0.53 0.23 0.07 0.09 0.04 0.01 0.01 0.00 0.01 0.01 0.01 0.01 0.02 0.04 0.02 0.01 0.00 0.00 0.00 0.00 0.00 0.00 0.00 0.00 0.00 0.00 0.00 0.00 0.00 0.02 0.04 0.08 0.27 0.37 0.33 0.27 0.24 0.20 0.23 0.25 0.28 0.31 0.37
1.09 0.72 0.52 0.40 0.33 0.19 0.22 0.15 0.20 0.19 0.14 0.12 0.10 0.14 0.11 0.05 0.02 0.00 0.00 0.00 0.00 0.00 0.00 0.00 0.00 0.00 0.00 0.02 0.06 0.10 0.12 0.15 0.26 0.45 0.44 0.41 0.42 0.35 0.32 0.33 0.36 0.43 0.51
1.03 1.24 1.10 0.82 0.65 0.49 0.47 0.67 0.55 0.55 0.51 0.39 0.29 0.17 0.15 0.11 0.13 0.10 0.04 0.05 0.02 0.01 0.00 0.00 0.00 0.02 0.07 0.13 0.21 0.27 0.28 0.31 0.38 0.50 0.75 0.80 0.79 0.75 0.71 0.63 0.67 0.77 0.80
0.61 0.75 0.78 0.72 0.58 0.53 0.54 0.60 0.60 0.53 0.51 0.47 0.44 0.46 0.35 0.23 0.16 0.21 0.18 0.08 0.06 0.03 0.02 0.03 0.05 0.08 0.13 0.21 0.30 0.36 0.40 0.44 0.49 0.58 0.81 0.97 1.00 0.98 1.11 1.29 1.35 1.29 1.26
0.39 0.43 0.51 0.55 0.64 0.50 0.46 0.54 0.61 0.55 0.50 0.46 0.42 0.46 0.53 0.49 0.33 0.29 0.26 0.15 0.13 0.07 0.05 0.04 0.06 0.08 0.09 0.16 0.24 0.34 0.41 0.47 0.64 0.75 0.90 1.14 1.15 1.26 1.54 1.87 1.90 1.81 1.77
0.20 0.30 0.40 0.45 0.44 0.44 0.40 0.34 0.35 0.35 0.35 0.40 0.44 0.41 0.40 0.40 0.37 0.39 0.43 0.33 0.28 0.19 0.19 0.16 0.17 0.18 0.19 0.23 0.34 0.54 0.60 0.65 0.72 0.78 0.93 1.09 1.07 1.08 1.07 1.04 1.14 1.22 1.33
0.18 0.20 0.22 0.27 0.30 0.32 0.33 0.30 0.30 0.32 0.34 0.40 0.46 0.47 0.44 0.36 0.38 0.38 0.39 0.43 0.40 0.27 0.24 0.22 0.21 0.31 0.45 0.62 0.75 0.79 0.68 0.71 0.71 0.73 0.70 0.62 0.57 0.51 0.42 0.43 0.51 0.57 0.65
0.10 0.13 0.16 0.15 0.19 0.21 0.22 0.24 0.27 0.27 0.30 0.34 0.38 0.43 0.44 0.42 0.45 0.44 0.48 0.60 0.82 0.78 0.57 0.53 0.60 0.64 0.69 0.67 0.64 0.60 0.55 0.58 0.46 0.31 0.23 0.17 0.15 0.17 0.22 0.25 0.28 0.37 0.50
0.07 0.10 0.10 0.11 0.10 0.10 0.10 0.10 0.12 0.13 0.20 0.24 0.29 0.36 0.39 0.39 0.42 0.44 0.49 0.56 0.70 0.93 0.84 0.58 0.59 0.66 0.73 0.69 0.61 0.44 0.31 0.31 0.22 0.19 0.16 0.14 0.12 0.15 0.16 0.19 0.23 0.29 0.36
0.04 0.03 0.03 0.04 0.04 0.03 0.02 0.02 0.03 0.04 0.07 0.12 0.17 0.22 0.23 0.23 0.29 0.35 0.42 0.48 0.55 0.71 0.80 0.56 0.48 0.40 0.31 0.18 0.11 0.15 0.13 0.11 0.09 0.14 0.15 0.16 0.16 0.17 0.17 0.18 0.20 0.26 0.31
0.03 0.02 0.01 0.01 0.01 0.01 0.00 0.01 0.01 0.02 0.03 0.03 0.04 0.06 0.10 0.13 0.18 0.27 0.32 0.35 0.41 0.43 0.49 0.35 0.15 0.13 0.12 0.09 0.06 0.08 0.09 0.11 0.11 0.11 0.12 0.12 0.15 0.18 0.19 0.19 0.19 0.21 0.25
0.02 0.02 0.02 0.01 0.01 0.00 0.00 0.00 0.00 0.01 0.03 0.04 0.07 0.10 0.14 0.21 0.27 0.32 0.39 0.41 0.38 0.36 0.38 0.41 0.19 0.10 0.09 0.07 0.08 0.10 0.12 0.12 0.12 0.15 0.18 0.19 0.22 0.22 0.23 0.26 0.31 0.39 0.43
0.02 0.02 0.02 0.01 0.01 0.02 0.03 0.04 0.05 0.08 0.10 0.12 0.15 0.18 0.23 0.26 0.26 0.24 0.23 0.23 0.25 0.26 0.27 0.30 0.31 0.25 0.16 0.14 0.18 0.14 0.12 0.11 0.13 0.16 0.22 0.28 0.36 0.43 0.45 0.48 0.48 0.44 0.40
0.04 0.04 0.03 0.02 0.04 0.08 0.12 0.16 0.19 0.23 0.29 0.34 0.37 0.35 0.31 0.28 0.21 0.13 0.16 0.17 0.23 0.25 0.35 0.52 0.51 0.44 0.41 0.33 0.26 0.26 0.37 0.38 0.39 0.37 0.35 0.36 0.42 0.47 0.44 0.45 0.47 0.45 0.46
0.12 0.10 0.13 0.17 0.18 0.18 0.30 0.24 0.20 0.22 0.25 0.24 0.22 0.21 0.22 0.24 0.19 0.16 0.16 0.18 0.18 0.33 0.50 0.65 0.65 0.55 0.40 0.40 0.42 0.51 0.66 0.78 0.74 0.33 0.29 0.38 0.39 0.43 0.43 0.46 0.50 0.46 0.44
0.56 0.55 0.56 0.41 0.43 0.49 0.55 0.43 0.40 0.41 0.40 0.36 0.33 0.29 0.20 0.14 0.12 0.09 0.06 0.09 0.18 0.35 0.40 0.29 0.24 0.25 0.34 0.31 0.52 0.66 0.62 0.64 0.54 0.34 0.43 0.56 0.47 0.52 0.51 0.52 0.56 0.51 0.51
0.48 0.55 0.89 0.94 0.94 0.91 0.79 0.58 0.39 0.29 0.20 0.16 0.12 0.08 0.04 0.03 0.03 0.04 0.09 0.29 0.26 0.13 0.04 0.06 0.08 0.11 0.24 0.40 0.59 0.84 0.83 0.88 0.68 0.48 0.46 0.59 0.34 0.38 0.39 0.43 0.55 0.41 0.35
0.67 0.62 0.54 0.44 0.36 0.30 0.21 0.15 0.12 0.11 0.09 0.06 0.02 0.01 0.04 0.03 0.02 0.11 0.27 0.32 0.07 0.01 0.02 0.05 0.15 0.18 0.20 0.21 0.28 0.62 0.85 0.83 0.77 0.47 0.38 0.46 0.37 0.36 0.34 0.33 0.43 0.47 0.44
0.54 0.44 0.34 0.23 0.16 0.10 0.08 0.04 0.01 0.02 0.01 0.00 0.02 0.02 0.02 0.03 0.07 0.32 0.19 0.05 0.08 0.04 0.14 0.11 0.03 0.02 0.04 0.11 0.23 0.32 0.72 1.39 0.99 0.83 0.39 0.77 0.59 0.48 0.81 0.37 0.43 0.53 0.45

GFSMA_prec_precacc_102.txt.gz
Total_Precipitation_Accumulation
0.00 0.00 0.00 0.00 0.00 0.00 0.00 0.00 0.00 0.00 0.00 0.00 0.00 0.00 0.00 0.00 0.00 0.00 0.00 0.00 0.00 0.00 0.00 0.01 0.01 0.01 0.04 0.07 0.11 0.13 0.14 0.12 0.10 0.09 0.09 0.09 0.09 0.11 0.12 0.14 0.15 0.16 0.15
0.00 0.00 0.00 0.00 0.00 0.00 0.00 0.00 0.00 0.00 0.00 0.00 0.00 0.00 0.00 0.00 0.00 0.00 0.00 0.00 0.00 0.00 0.00 0.00 0.01 0.01 0.02 0.04 0.07 0.12 0.11 0.09 0.08 0.08 0.08 0.09 0.09 0.10 0.12 0.13 0.15 0.16 0.18
0.00 0.00 0.00 0.00 0.00 0.00 0.00 0.00 0.00 0.00 0.00 0.00 0.00 0.00 0.00 0.00 0.00 0.00 0.00 0.00 0.00 0.00 0.00 0.00 0.01 0.04 0.04 0.02 0.04 0.07 0.10 0.11 0.11 0.12 0.13 0.13 0.13 0.13 0.13 0.15 0.16 0.16 0.17
0.00 0.00 0.00 0.00 0.00 0.00 0.00 0.00 0.00 0.00 0.00 0.00 0.00 0.00 0.00 0.00 0.00 0.00 0.00 0.00 0.00 0.00 0.00 0.00 0.02 0.07 0.12 0.08 0.07 0.08 0.09 0.09 0.10 0.12 0.13 0.14 0.16 0.17 0.19 0.19 0.19 0.20 0.21
0.00 0.00 0.00 0.00 0.00 0.00 0.00 0.00 0.00 0.00 0.00 0.00 0.00 0.00 0.00 0.00 0.00 0.00 0.00 0.00 0.00 0.00 0.00 0.00 0.00 0.01 0.04 0.05 0.08 0.15 0.31 0.22 0.11 0.10 0.10 0.11 0.13 0.16 0.20 0.24 0.26 0.27 0.28
0.04 0.00 0.00 0.00 0.00 0.00 0.00 0.00 0.00 0.00 0.00 0.00 0.00 0.00 0.00 0.00 0.00 0.00 0.00 0.00 0.00 0.00 0.00 0.00 0.00 0.00 0.00 0.02 0.05 0.05 0.18 0.49 0.28 0.10 0.09 0.10 0.10 0.14 0.20 0.24 0.26 0.27 0.28
0.13 0.06 0.01 0.00 0.00 0.00 0.00 0.00 0.00 0.00 0.00 0.00 0.00 0.00 0.00 0.00 0.00 0.00 0.00 0.00 0.00 0.00 0.00 0.00 0.00 0.00 0.00 0.01 0.02 0.02 0.06 0.21 0.37 0.31 0.24 0.20 0.16 0.16 0.18 0.20 0.23 0.30 0.36
0.55 0.24 0.08 0.09 0.04 0.01 0.01 0.00 0.01 0.01 0.01 0.01 0.02 0.04 0.02 0.01 0.00 0.00 0.00 0.00 0.00 0.00 0.00 0.00 0.00 0.00 0.00 0.00 0.00 0.02 0.04 0.08 0.27 0.38 0.37 0.35 0.33 0.24 0.23 0.25 0.28 0.31 0.37
1.16 0.79 0.59 0.43 0.33 0.21 0.29 0.26 0.31 0.27 0.20 0.18 0.13 0.15 0.11 0.05 0.02 0.01 0.02 0.01 0.01 0.00 0.00 0.00 0.00 0.00 0.00 0.02 0.06 0.10 0.12 0.15 0.26 0.45 0.44 0.41 0.45 0.45 0.40 0.34 0.36 0.43 0.51
1.11 1.37 1.32 1.01 0.80 0.64 0.59 0.77 0.65 0.67 0.65 0.51 0.37 0.23 0.21 0.16 0.18 0.12 0.04 0.05 0.02 0.01 0.00 0.00 0.00 0.02 0.07 0.13 0.21 0.27 0.28 0.31 0.38 0.50 0.75 0.80 0.79 0.76 0.78 0.75 0.70 0.78 0.81
0.75 0.87 0.88 0.88 0.78 0.74 0.75 0.76 0.72 0.62 0.59 0.54 0.51 0.52 0.45 0.35 0.28 0.34 0.23 0.08 0.06 0.03 0.02 0.03 0.05 0.08 0.13 0.21 0.30 0.36 0.40 0.44 0.49 0.58 0.81 0.97 1.00 0.99 1.13 1.40 1.48 1.37 1.30
0.49 0.50 0.60 0.65 0.78 0.61 0.50 0.57 0.64 0.58 0.53 0.49 0.45 0.51 0.62 0.61 0.42 0.36 0.31 0.17 0.14 0.07 0.05 0.04 0.06 0.08 0.09 0.16 0.24 0.34 0.41 0.47 0.64 0.75 0.90 1.16 1.17 1.26 1.56 1.92 2.07 2.10 1.96
0.20 0.31 0.41 0.50 0.53 0.53 0.46 0.38 0.37 0.36 0.37 0.42 0.47 0.44 0.42 0.43 0.41 0.44 0.47 0.36 0.29 0.19 0.19 0.16 0.17 0.18 0.19 0.23 0.34 0.54 0.60 0.65 0.72 0.79 0.96 1.12 1.08 1.08 1.10 1.08 1.21 1.39 1.41
0.18 0.20 0.22 0.28 0.31 0.33 0.34 0.31 0.31 0.33 0.35 0.42 0.48 0.50 0.47 0.41 0.42 0.41 0.42 0.46 0.41 0.28 0.24 0.22 0.21 0.31 0.45 0.62 0.75 0.79 0.68 0.71 0.72 0.73 0.70 0.63 0.57 0.51 0.42 0.43 0.51 0.57 0.66
0.10 0.13 0.16 0.15 0.19 0.21 0.22 0.24 0.27 0.27 0.30 0.34 0.39 0.44 0.45 0.43 0.46 0.45 0.48 0.61 0.84 0.79 0.58 0.54 0.60 0.64 0.69 0.67 0.64 0.60 0.55 0.58 0.46 0.31 0.23 0.17 0.15 0.17 0.22 0.25 0.28 0.37 0.50
0.07 0.10 0.10 0.11 0.10 0.10 0.10 0.10 0.12 0.13 0.20 0.24 0.29 0.36 0.39 0.39 0.42 0.44 0.50 0.57 0.71 0.95 0.88 0.59 0.59 0.66 0.73 0.69 0.62 0.44 0.31 0.31 0.22 0.19 0.16 0.14 0.12 0.15 0.16 0.19 0.23 0.29 0.36
0.04 0.03 0.03 0.04 0.04 0.03 0.02 0.02 0.03 0.04 0.07 0.12 0.17 0.22 0.23 0.23 0.29 0.35 0.43 0.49 0.56 0.72 0.81 0.56 0.48 0.40 0.31 0.18 0.11 0.15 0.13 0.11 0.09 0.14 0.15 0.16 0.16 0.17 0.17 0.18 0.20 0.26 0.31
0.03 0.02 0.01 0.01 0.01 0.01 0.00 0.01 0.01 0.02 0.03 0.03 0.04 0.06 0.10 0.13 0.19 0.27 0.32 0.35 0.41 0.43 0.49 0.35 0.15 0.13 0.12 0.09 0.06 0.08 0.09 0.11 0.11 0.11 0.12 0.12 0.15 0.18 0.19 0.19 0.19 0.21 0.25
0.02 0.02 0.02 0.01 0.01 0.00 0.00 0.00 0.00 0.01 0.03 0.04 0.07 0.10 0.15 0.21 0.27 0.32 0.39 0.41 0.38 0.36 0.38 0.41 0.20 0.10 0.09 0.07 0.08 0.10 0.12 0.12 0.12 0.15 0.18 0.19 0.22 0.22 0.23 0.26 0.31 0.39 0.43
0.02 0.02 0.02 0.01 0.01 0.02 0.03 0.04 0.05 0.08 0.10 0.12 0.15 0.18 0.23 0.26 0.26 0.25 0.23 0.24 0.25 0.26 0.27 0.30 0.31 0.25 0.16 0.14 0.18 0.14 0.12 0.11 0.13 0.16 0.22 0.28 0.36 0.43 0.45 0.48 0.48 0.44 0.40
0.04 0.04 0.03 0.02 0.04 0.08 0.12 0.16 0.19 0.23 0.29 0.34 0.37 0.35 0.31 0.28 0.21 0.14 0.16 0.17 0.23 0.25 0.35 0.52 0.51 0.44 0.41 0.33 0.26 0.26 0.37 0.38 0.39 0.37 0.35 0.36 0.42 0.47 0.44 0.45 0.47 0.45 0.46
0.12 0.10 0.13 0.17 0.18 0.18 0.30 0.24 0.20 0.22 0.25 0.24 0.22 0.21 0.22 0.24 0.19 0.16 0.17 0.18 0.18 0.33 0.50 0.65 0.65 0.55 0.40 0.40 0.42 0.51 0.66 0.78 0.74 0.33 0.29 0.38 0.39 0.43 0.43 0.46 0.50 0.46 0.44
0.56 0.55 0.56 0.41 0.43 0.49 0.55 0.43 0.40 0.41 0.40 0.36 0.33 0.29 0.20 0.14 0.12 0.09 0.06 0.09 0.18 0.35 0.40 0.29 0.24 0.25 0.34 0.31 0.52 0.66 0.62 0.64 0.54 0.34 0.43 0.56 0.47 0.52 0.51 0.52 0.56 0.51 0.51
0.48 0.55 0.89 0.94 0.94 0.91 0.79 0.58 0.39 0.29 0.20 0.16 0.12 0.08 0.04 0.03 0.03 0.04 0.09 0.29 0.26 0.13 0.04 0.06 0.08 0.11 0.24 0.40 0.59 0.84 0.83 0.88 0.68 0.48 0.46 0.59 0.34 0.38 0.39 0.43 0.55 0.41 0.35
0.67 0.62 0.54 0.44 0.36 0.30 0.21 0.15 0.12 0.11 0.09 0.06 0.02 0.01 0.04 0.03 0.02 0.11 0.27 0.32 0.07 0.01 0.02 0.05 0.15 0.18 0.20 0.21 0.28 0.62 0.85 0.83 0.77 0.47 0.38 0.46 0.37 0.36 0.34 0.33 0.43 0.47 0.44
0.54 0.44 0.34 0.23 0.16 0.10 0.08 0.04 0.01 0.02 0.01 0.00 0.02 0.02 0.02 0.03 0.07 0.32 0.19 0.05 0.08 0.04 0.14 0.11 0.03 0.02 0.04 0.11 0.23 0.32 0.72 1.39 0.99 0.83 0.39 0.77 0.59 0.48 0.81 0.37 0.43 0.53 0.45